M I D A S
Marine Information and Data Acquisition System
Tripno 968 of the Zeeleeuw from 2005-10-06 06:43:35 to 2005-10-06 14:53:27
Back to CruiseResearch ActivitiesStationsMapUnderway DataData graphs

EquipmentUnitsComment
TimeDGPSUTC
LatitudeDGPSDM.mWGS84
LongitudeDGPSDM.mWGS84
TemperatureSBE03/SBE38deg celciusITS90
ConductivitySBE21S/mITS90
SalinitySBE21 Practical Salinity Units
ChlorophylAChelsea fluorimeterg/lCalibrated in Aceton
Missing or incorrect values are displayed as -999
Sea surface data collected by the RV Zeeleeuw from 2005-10-06 06:26:14 to 2005-10-06 14:53:04
                                                                                    Next 1000 lines
Time Latitude Longitude Temperature Conductivity Salinity ChlorophylA
2005-10-06 06:26:24 51°13.6 2°56.102 -999 0.012608 0.069794 -0.444155
2005-10-06 06:26:29 51°13.6 2°56.102 -999 0.012608 0.069794 -0.444155
2005-10-06 06:26:34 51°13.6 2°56.101 -999 0.012608 0.069794 -0.444155
2005-10-06 06:26:39 51°13.6 2°56.101 -999 0.012608 0.069794 -0.444155
2005-10-06 06:26:44 51°13.6 2°56.1 -999 0.012608 0.069794 -0.444155
2005-10-06 06:26:48 51°13.6 2°56.098 -999 0.012608 0.069794 -0.444155
2005-10-06 06:26:54 51°13.601 2°56.095 -999 0.012608 0.069793 -0.444155
2005-10-06 06:26:59 51°13.601 2°56.09 -999 0.012608 0.069794 -0.444155
2005-10-06 06:27:04 51°13.602 2°56.085 -999 0.012608 0.069794 -0.444155
2005-10-06 06:27:09 51°13.602 2°56.079 -999 0.012608 0.069795 -0.444155
2005-10-06 06:27:14 51°13.603 2°56.073 -999 0.012608 0.069795 -0.444155
2005-10-06 06:27:20 51°13.605 2°56.066 -999 0.012608 0.069796 -0.444155
2005-10-06 06:27:24 51°13.605 2°56.061 -999 0.012608 0.069796 -0.444155
2005-10-06 06:27:30 51°13.607 2°56.055 -999 0.012608 0.069796 -0.444155
2005-10-06 06:27:35 51°13.607 2°56.052 -999 0.012608 0.069797 -0.444155
2005-10-06 06:27:40 51°13.607 2°56.051 -999 0.012608 0.069797 -0.444155
2005-10-06 06:27:44 51°13.607 2°56.051 -999 0.012608 0.069797 -0.444155
2005-10-06 06:27:49 51°13.606 2°56.054 -999 0.012608 0.069796 -0.444155
2005-10-06 06:27:54 51°13.605 2°56.057 -999 0.012608 0.069795 -0.410446
2005-10-06 06:28:00 51°13.603 2°56.061 -999 0.012608 0.069795 -0.444155
2005-10-06 06:28:04 51°13.602 2°56.064 -999 0.012608 0.069795 -0.444155
2005-10-06 06:28:10 51°13.599 2°56.068 -999 0.012608 0.069796 -0.444155
2005-10-06 06:28:14 51°13.598 2°56.071 -999 0.012608 0.069795 -0.444155
2005-10-06 06:28:20 51°13.595 2°56.076 -999 0.012608 0.069794 -0.444155
2005-10-06 06:28:24 51°13.593 2°56.079 -999 0.012608 0.069795 -0.444155
2005-10-06 06:28:29 51°13.591 2°56.082 -999 0.012608 0.069796 -0.444155
2005-10-06 06:28:34 51°13.589 2°56.085 -999 0.012608 0.069796 -0.444155
2005-10-06 06:28:39 51°13.585 2°56.087 -999 0.012608 0.069796 -0.444155
2005-10-06 06:28:44 51°13.582 2°56.09 -999 0.012608 0.069796 -0.444155
2005-10-06 06:28:49 51°13.579 2°56.092 -999 0.012608 0.069797 -0.444155
2005-10-06 06:28:54 51°13.576 2°56.094 -999 0.012608 0.069798 -0.444155
2005-10-06 06:28:59 51°13.573 2°56.097 -999 0.012608 0.069798 -0.444155
2005-10-06 06:29:04 51°13.57 2°56.1 -999 0.012608 0.069799 -0.410446
2005-10-06 06:29:09 51°13.567 2°56.104 -999 0.012608 0.069799 -0.410446
2005-10-06 06:29:14 51°13.564 2°56.108 -999 0.012608 0.069799 -0.444155
2005-10-06 06:29:19 51°13.561 2°56.113 -999 0.012608 0.069799 -0.444155
2005-10-06 06:29:24 51°13.558 2°56.118 -999 0.012608 0.069799 -0.444155
2005-10-06 06:29:29 51°13.555 2°56.123 -999 0.012608 0.069799 -0.444155
2005-10-06 06:29:34 51°13.552 2°56.127 -999 0.012608 0.0698 -0.444155
2005-10-06 06:29:39 51°13.549 2°56.132 -999 0.012608 0.0698 -0.444155
2005-10-06 06:29:44 51°13.546 2°56.137 -999 0.012608 0.0698 -0.444155
2005-10-06 06:29:49 51°13.543 2°56.143 -999 0.012608 0.0698 -0.444155
2005-10-06 06:29:54 51°13.541 2°56.149 -999 0.012608 0.069802 -0.444155
2005-10-06 06:29:59 51°13.539 2°56.155 -999 0.012608 0.069802 -0.444155
2005-10-06 06:30:04 51°13.537 2°56.162 -999 0.012608 0.069802 -0.444155
2005-10-06 06:30:08 51°13.536 2°56.168 -999 0.012608 0.069802 -0.444155
2005-10-06 06:30:14 51°13.535 2°56.177 -999 0.012608 0.069803 -0.444155
2005-10-06 06:30:19 51°13.535 2°56.185 -999 0.012608 0.069802 -0.444155
2005-10-06 06:30:24 51°13.535 2°56.192 -999 0.012608 0.069802 -0.444155
2005-10-06 06:30:28 51°13.535 2°56.198 -999 0.012608 0.069802 -0.444155
2005-10-06 06:30:34 51°13.536 2°56.205 -999 0.012608 0.069802 -0.444155
2005-10-06 06:30:39 51°13.536 2°56.21 -999 0.012608 0.069803 -0.444155
2005-10-06 06:30:44 51°13.537 2°56.214 -999 0.012608 0.069804 -0.444155
2005-10-06 06:30:49 51°13.537 2°56.216 -999 0.012608 0.069804 -0.444155
2005-10-06 06:30:54 51°13.537 2°56.218 -999 0.012608 0.069805 -0.444155
2005-10-06 06:30:59 51°13.538 2°56.219 -999 0.012608 0.069804 -0.444155
2005-10-06 06:31:04 51°13.538 2°56.22 -999 0.012608 0.069806 -0.444155
2005-10-06 06:31:08 51°13.538 2°56.22 -999 0.012608 0.069806 -0.444155
2005-10-06 06:31:14 51°13.538 2°56.222 -999 0.012608 0.069806 -0.444155
2005-10-06 06:31:19 51°13.539 2°56.223 -999 0.012608 0.069806 -0.444155
2005-10-06 06:31:24 51°13.54 2°56.225 -999 0.012608 0.069806 -0.444155
2005-10-06 06:31:29 51°13.541 2°56.228 -999 0.012608 0.069806 -0.410446
2005-10-06 06:31:34 51°13.543 2°56.23 -999 0.012608 0.069806 -0.444155
2005-10-06 06:31:39 51°13.545 2°56.232 -999 0.012608 0.069806 -0.444155
2005-10-06 06:31:44 51°13.547 2°56.234 -999 0.012608 0.069806 -0.444155
2005-10-06 06:31:48 51°13.549 2°56.235 -999 0.012608 0.069806 -0.444155
2005-10-06 06:31:54 51°13.551 2°56.236 -999 0.012608 0.069806 -0.444155
2005-10-06 06:31:59 51°13.551 2°56.237 -999 0.012608 0.069807 -0.444155
2005-10-06 06:32:04 51°13.552 2°56.237 -999 0.012608 0.069807 -0.444155
2005-10-06 06:32:08 51°13.552 2°56.237 -999 0.012608 0.069807 -0.444155
2005-10-06 06:32:14 51°13.551 2°56.237 -999 0.012608 0.069807 -0.444155
2005-10-06 06:32:19 51°13.55 2°56.237 -999 0.012608 0.069808 -0.444155
2005-10-06 06:32:24 51°13.548 2°56.237 -999 0.012608 0.069809 -0.444155
2005-10-06 06:32:28 51°13.546 2°56.236 -999 0.012608 0.069809 -0.444155
2005-10-06 06:32:34 51°13.544 2°56.235 -999 0.012608 0.069809 -0.444155
2005-10-06 06:32:40 51°13.541 2°56.235 -999 0.012608 0.069809 -0.444155
2005-10-06 06:32:44 51°13.539 2°56.234 -999 0.012608 0.069809 -0.444155
2005-10-06 06:32:50 51°13.535 2°56.234 -999 0.012608 0.06981 -0.444155
2005-10-06 06:32:54 51°13.533 2°56.234 -999 0.012608 0.069811 -0.444155
2005-10-06 06:32:59 51°13.531 2°56.234 -999 0.012608 0.069811 -0.444155
2005-10-06 06:33:04 51°13.528 2°56.233 -999 0.012608 0.069811 -0.444155
2005-10-06 06:33:10 51°13.526 2°56.233 -999 0.012608 0.069811 -0.444155
2005-10-06 06:33:14 51°13.526 2°56.233 -999 0.012608 0.069811 -0.444155
2005-10-06 06:33:19 51°13.526 2°56.233 -999 0.012608 0.069811 -0.444155
2005-10-06 06:33:24 51°13.527 2°56.233 -999 0.012608 0.069812 -0.444155
2005-10-06 06:33:29 51°13.528 2°56.232 -999 0.012608 0.069813 -0.444155
2005-10-06 06:33:34 51°13.53 2°56.231 -999 0.012608 0.069813 -0.444155
2005-10-06 06:33:39 51°13.532 2°56.229 -999 0.012608 0.069813 -0.444155
2005-10-06 06:33:44 51°13.534 2°56.227 -999 0.012608 0.069812 -0.444155
2005-10-06 06:33:50 51°13.536 2°56.223 -999 0.012608 0.069813 -0.444155
2005-10-06 06:33:54 51°13.538 2°56.221 -999 0.012608 0.069813 -0.444155
2005-10-06 06:33:59 51°13.54 2°56.217 -999 0.012608 0.069813 -0.444155
2005-10-06 06:34:04 51°13.542 2°56.212 -999 0.012608 0.069813 -0.444155
2005-10-06 06:34:08 51°13.544 2°56.207 -999 0.012608 0.069814 -0.444155
2005-10-06 06:34:14 51°13.546 2°56.201 -999 0.012608 0.069814 -0.444155
2005-10-06 06:34:19 51°13.548 2°56.195 -999 0.012608 0.069814 -0.444155
2005-10-06 06:34:24 51°13.549 2°56.189 -999 0.012608 0.069815 -0.444155
2005-10-06 06:34:28 51°13.551 2°56.184 -999 0.012608 0.069815 -0.444155
2005-10-06 06:34:34 51°13.553 2°56.177 -999 0.012608 0.069815 -0.444155
2005-10-06 06:34:39 51°13.554 2°56.171 -999 0.012608 0.069815 -0.444155
2005-10-06 06:34:44 51°13.555 2°56.165 -999 0.012608 0.069816 -0.444155
2005-10-06 06:34:49 51°13.557 2°56.159 -999 0.012608 0.069817 -0.444155
2005-10-06 06:34:54 51°13.558 2°56.153 -999 0.012608 0.069817 -0.444155
2005-10-06 06:34:59 51°13.559 2°56.147 -999 0.012608 0.069817 -0.444155
2005-10-06 06:35:04 51°13.56 2°56.141 -999 0.012608 0.069818 -0.444155
2005-10-06 06:35:09 51°13.562 2°56.135 -999 0.012608 0.069818 -0.444155
2005-10-06 06:35:14 51°13.563 2°56.129 -999 0.012608 0.069818 -0.444155
2005-10-06 06:35:19 51°13.564 2°56.123 -999 0.012608 0.069818 -0.444155
2005-10-06 06:35:24 51°13.565 2°56.118 -999 0.012608 0.069819 -0.444155
2005-10-06 06:35:29 51°13.566 2°56.112 -999 0.012608 0.069818 -0.444155
2005-10-06 06:35:34 51°13.566 2°56.108 -999 0.012608 0.069818 -0.444155
2005-10-06 06:35:39 51°13.567 2°56.105 -999 0.012608 0.069819 -0.444155
2005-10-06 06:35:44 51°13.568 2°56.103 -999 0.012608 0.06982 -0.444155
2005-10-06 06:35:48 51°13.568 2°56.102 -999 0.012608 0.069818 -0.444155
2005-10-06 06:35:54 51°13.568 2°56.102 -999 0.012608 0.069819 -0.444155
2005-10-06 06:35:59 51°13.568 2°56.1 -999 0.012608 0.06982 -0.444155
2005-10-06 06:36:04 51°13.568 2°56.099 -999 0.012608 0.06982 -0.444155
2005-10-06 06:36:08 51°13.568 2°56.098 -999 0.012608 0.069821 -0.444155
2005-10-06 06:36:14 51°13.569 2°56.096 -999 0.012608 0.069821 -0.444155
2005-10-06 06:36:19 51°13.569 2°56.094 -999 0.012608 0.069821 -0.444155
2005-10-06 06:36:24 51°13.57 2°56.092 -999 0.012608 0.069822 -0.444155
2005-10-06 06:36:29 51°13.57 2°56.09 -999 0.012608 0.069823 -0.444155
2005-10-06 06:36:34 51°13.571 2°56.087 -999 0.012608 0.069823 -0.444155
2005-10-06 06:36:39 51°13.572 2°56.085 -999 0.012608 0.069823 -0.444155
2005-10-06 06:36:44 51°13.573 2°56.082 -999 0.012608 0.069824 -0.444155
2005-10-06 06:36:48 51°13.574 2°56.079 -999 0.012608 0.069824 -0.444155
2005-10-06 06:36:54 51°13.575 2°56.076 -999 0.012608 0.069824 -0.444155
2005-10-06 06:36:59 51°13.576 2°56.072 -999 0.012608 0.069825 -0.444155
2005-10-06 06:37:04 51°13.578 2°56.069 -999 0.012608 0.069825 -0.444155
2005-10-06 06:37:08 51°13.579 2°56.066 -999 0.012608 0.069825 -0.444155
2005-10-06 06:37:14 51°13.581 2°56.062 -999 0.012608 0.069825 -0.444155
2005-10-06 06:37:19 51°13.582 2°56.058 -999 0.012608 0.069826 -0.444155
2005-10-06 06:37:24 51°13.584 2°56.055 -999 0.012608 0.069826 -0.444155
2005-10-06 06:37:29 51°13.586 2°56.051 -999 0.012608 0.069826 -0.444155
2005-10-06 06:37:34 51°13.588 2°56.047 -999 0.012608 0.069826 -0.444155
2005-10-06 06:37:39 51°13.59 2°56.043 -999 0.012608 0.069827 -0.444155
2005-10-06 06:37:44 51°13.592 2°56.038 -999 0.012608 0.069827 -0.444155
2005-10-06 06:37:48 51°13.593 2°56.035 -999 0.012608 0.069827 -0.444155
2005-10-06 06:37:54 51°13.596 2°56.029 -999 0.012608 0.069827 -0.444155
2005-10-06 06:37:59 51°13.598 2°56.025 -999 0.012608 0.069828 -0.444155
2005-10-06 06:38:04 51°13.6 2°56.021 -999 0.012608 0.069828 -0.444155
2005-10-06 06:38:08 51°13.601 2°56.017 -999 0.012608 0.069828 -0.444155
2005-10-06 06:38:14 51°13.604 2°56.012 -999 0.012608 0.069828 -0.444155
2005-10-06 06:38:19 51°13.606 2°56.008 -999 0.012608 0.069829 -0.444155
2005-10-06 06:38:24 51°13.608 2°56.004 -999 0.012608 0.06983 -0.444155
2005-10-06 06:38:29 51°13.61 2°56.001 -999 0.012608 0.06983 -0.444155
2005-10-06 06:38:34 51°13.612 2°55.997 -999 0.012608 0.06983 -0.444155
2005-10-06 06:38:39 51°13.614 2°55.993 -999 0.012608 0.06983 -0.444155
2005-10-06 06:38:44 51°13.616 2°55.99 -999 0.012608 0.06983 -0.444155
2005-10-06 06:38:48 51°13.616 2°55.989 -999 0.012608 0.069831 -0.444155
2005-10-06 06:38:54 51°13.617 2°55.987 -999 0.012608 0.069831 -0.444155
2005-10-06 06:38:59 51°13.617 2°55.988 -999 0.012608 0.06983 -0.444155
2005-10-06 06:39:04 51°13.617 2°55.988 -999 0.012608 0.06983 -0.444155
2005-10-06 06:39:09 51°13.617 2°55.989 -999 0.012608 0.069832 -0.444155
2005-10-06 06:39:14 51°13.616 2°55.989 -999 0.012608 0.069833 -0.444155
2005-10-06 06:39:19 51°13.616 2°55.99 -999 0.012608 0.069833 -0.444155
2005-10-06 06:39:24 51°13.616 2°55.99 -999 0.012608 0.069833 -0.444155
2005-10-06 06:39:30 51°13.616 2°55.991 -999 0.012608 0.069834 -0.444155
2005-10-06 06:39:34 51°13.615 2°55.991 -999 0.012608 0.069834 -0.444155
2005-10-06 06:39:40 51°13.615 2°55.992 -999 0.012608 0.069834 -0.410446
2005-10-06 06:39:44 51°13.615 2°55.992 -999 0.012608 0.069834 -0.444155
2005-10-06 06:39:50 51°13.615 2°55.992 -999 0.012608 0.069835 -0.444155
2005-10-06 06:39:54 51°13.614 2°55.993 -999 0.012608 0.069835 -0.444155
2005-10-06 06:39:59 51°13.614 2°55.993 -999 0.012608 0.069835 -0.444155
2005-10-06 06:40:04 51°13.614 2°55.993 -999 0.012608 0.069836 -0.444155
2005-10-06 06:40:10 51°13.614 2°55.993 -999 0.012608 0.069836 -0.444155
2005-10-06 06:40:14 51°13.614 2°55.993 -999 0.012608 0.069836 -0.444155
2005-10-06 06:40:19 51°13.614 2°55.994 -999 0.012608 0.069836 -0.444155
2005-10-06 06:40:24 51°13.613 2°55.993 -999 0.012505 0.0693 -0.444155
2005-10-06 06:40:29 51°13.613 2°55.994 -999 0.012608 0.069837 -0.444155
2005-10-06 06:40:34 51°13.613 2°55.994 -999 0.012608 0.069838 -0.444155
2005-10-06 06:40:39 51°13.613 2°55.994 -999 0.012608 0.069838 -0.444155
2005-10-06 06:40:44 51°13.613 2°55.994 -999 0.012608 0.069838 -0.444155
2005-10-06 06:40:48 51°13.613 2°55.994 -999 0.012608 0.069838 -0.444155
2005-10-06 06:40:54 51°13.613 2°55.994 -999 0.012608 0.069838 -0.444155
2005-10-06 06:40:59 51°13.613 2°55.993 -999 0.012608 0.069839 -0.444155
2005-10-06 06:41:04 51°13.614 2°55.993 -999 0.012608 0.069839 -0.444155
2005-10-06 06:41:09 51°13.614 2°55.992 -999 0.012608 0.069839 -0.444155
2005-10-06 06:41:14 51°13.614 2°55.991 -999 0.012608 0.069839 -0.444155
2005-10-06 06:41:19 51°13.615 2°55.989 -999 0.012608 0.06984 -0.444155
2005-10-06 06:41:24 51°13.616 2°55.988 -999 0.012608 0.06984 -0.444155
2005-10-06 06:41:28 51°13.616 2°55.987 -999 0.012608 0.06984 -0.444155
2005-10-06 06:41:34 51°13.617 2°55.985 -999 0.012608 0.06984 -0.444155
2005-10-06 06:41:39 51°13.618 2°55.983 -999 0.012608 0.069841 -0.444155
2005-10-06 06:41:44 51°13.619 2°55.981 -999 0.012608 0.069841 -0.444155
2005-10-06 06:41:48 51°13.619 2°55.98 -999 0.012608 0.069842 -0.444155
2005-10-06 06:41:54 51°13.62 2°55.977 -999 0.012608 0.069842 -0.444155
2005-10-06 06:41:59 51°13.621 2°55.975 -999 0.012608 0.069842 -0.444155
2005-10-06 06:42:04 51°13.623 2°55.972 -999 0.012608 0.069843 -0.444155
2005-10-06 06:42:08 51°13.624 2°55.97 -999 0.012608 0.069843 -0.444155
2005-10-06 06:42:14 51°13.625 2°55.966 -999 0.012608 0.069843 -0.444155
2005-10-06 06:42:19 51°13.626 2°55.963 -999 0.012608 0.069843 -0.444155
2005-10-06 06:42:24 51°13.628 2°55.96 -999 0.012608 0.069844 -0.444155
2005-10-06 06:42:28 51°13.629 2°55.957 -999 0.012608 0.069845 -0.444155
2005-10-06 06:42:34 51°13.631 2°55.953 -999 0.012608 0.069845 -0.444155
2005-10-06 06:42:39 51°13.632 2°55.949 -999 0.012608 0.069845 -0.444155
2005-10-06 06:42:44 51°13.634 2°55.945 -999 0.012608 0.069845 -0.444155
2005-10-06 06:42:49 51°13.636 2°55.941 -999 0.012608 0.069845 -0.444155
2005-10-06 06:42:54 51°13.638 2°55.937 -999 0.012608 0.069846 -0.444155
2005-10-06 06:42:59 51°13.639 2°55.933 -999 0.012608 0.069847 -0.444155
2005-10-06 06:43:04 51°13.641 2°55.929 -999 0.012608 0.069847 -0.444155
2005-10-06 06:43:09 51°13.643 2°55.924 -999 0.012505 0.069311 -0.444155
2005-10-06 06:43:14 51°13.645 2°55.92 -999 0.012608 0.069847 -0.444155
2005-10-06 06:43:19 51°13.647 2°55.915 -999 0.012505 0.069311 -0.444155
2005-10-06 06:43:24 51°13.649 2°55.911 -999 0.012505 0.069311 -0.444155
2005-10-06 06:43:28 51°13.65 2°55.907 -999 0.012608 0.069848 -0.444155
2005-10-06 06:43:34 51°13.653 2°55.901 -999 0.012505 0.069312 -0.444155
2005-10-06 06:43:39 51°13.655 2°55.896 -999 0.012505 0.069312 -0.444155
2005-10-06 06:43:44 51°13.657 2°55.892 -999 0.012608 0.069848 -0.444155
2005-10-06 06:43:48 51°13.659 2°55.888 -999 0.012505 0.069312 -0.444155
2005-10-06 06:43:54 51°13.661 2°55.882 -999 0.012505 0.069312 -0.444155
2005-10-06 06:43:59 51°13.663 2°55.878 -999 0.012608 0.069849 -0.444155
2005-10-06 06:44:04 51°13.665 2°55.874 -999 0.012608 0.06985 -0.444155
2005-10-06 06:44:08 51°13.667 2°55.87 -999 0.012608 0.06985 -0.444155
2005-10-06 06:44:14 51°13.67 2°55.865 -999 0.012505 0.069313 -0.444155
2005-10-06 06:44:19 51°13.672 2°55.861 -999 0.012505 0.069313 -0.444155
2005-10-06 06:44:24 51°13.674 2°55.857 -999 0.012505 0.069314 -0.444155
2005-10-06 06:44:29 51°13.676 2°55.853 -999 0.012505 0.069314 -0.444155
2005-10-06 06:44:34 51°13.678 2°55.848 -999 0.012505 0.069314 -0.444155
2005-10-06 06:44:39 51°13.68 2°55.843 -999 0.012505 0.069314 -0.444155
2005-10-06 06:44:44 51°13.683 2°55.839 -999 0.012505 0.069314 -0.444155
2005-10-06 06:44:48 51°13.684 2°55.835 -999 0.012505 0.069315 -0.444155
2005-10-06 06:44:54 51°13.687 2°55.829 -999 0.012505 0.069315 -0.444155
2005-10-06 06:44:59 51°13.689 2°55.825 -999 0.012505 0.069316 -0.444155
2005-10-06 06:45:04 51°13.692 2°55.82 -999 0.012505 0.069316 -0.444155
2005-10-06 06:45:08 51°13.693 2°55.816 -999 0.012505 0.069316 -0.444155
2005-10-06 06:45:14 51°13.696 2°55.81 -999 0.012505 0.069316 -0.444155
2005-10-06 06:45:19 51°13.699 2°55.806 -999 0.012505 0.069316 -0.444155
2005-10-06 06:45:24 51°13.701 2°55.802 -999 0.012505 0.069317 -0.444155
2005-10-06 06:45:28 51°13.703 2°55.798 -999 0.012505 0.069317 -0.444155
2005-10-06 06:45:34 51°13.706 2°55.794 -999 0.012505 0.069317 -0.444155
2005-10-06 06:45:39 51°13.708 2°55.79 -999 0.012505 0.069317 -0.444155
2005-10-06 06:45:44 51°13.71 2°55.787 -999 0.012505 0.069318 -0.444155
2005-10-06 06:45:48 51°13.712 2°55.784 -999 0.012505 0.069318 -0.444155
2005-10-06 06:45:54 51°13.715 2°55.779 -999 0.012505 0.069318 -0.444155
2005-10-06 06:45:59 51°13.717 2°55.775 -999 0.012505 0.069318 -0.444155
2005-10-06 06:46:04 51°13.72 2°55.771 -999 0.012505 0.069319 -0.444155
2005-10-06 06:46:08 51°13.722 2°55.768 -999 0.012505 0.069319 -0.444155
2005-10-06 06:46:14 51°13.725 2°55.763 -999 0.012505 0.069319 -0.444155
2005-10-06 06:46:19 51°13.728 2°55.758 -999 0.012505 0.069319 -0.444155
2005-10-06 06:46:24 51°13.731 2°55.753 -999 0.012505 0.069319 -0.444155
2005-10-06 06:46:28 51°13.733 2°55.748 -999 0.012505 0.06932 -0.444155
2005-10-06 06:46:34 51°13.736 2°55.741 -999 0.012505 0.06932 -0.444155
2005-10-06 06:46:39 51°13.739 2°55.735 -999 0.012505 0.06932 -0.444155
2005-10-06 06:46:44 51°13.742 2°55.73 -999 0.012505 0.06932 -0.444155
2005-10-06 06:46:48 51°13.744 2°55.725 -999 0.012505 0.06932 -0.444155
2005-10-06 06:46:54 51°13.748 2°55.718 -999 0.012505 0.069321 -0.444155
2005-10-06 06:46:59 51°13.751 2°55.712 -999 0.012505 0.069321 -0.444155
2005-10-06 06:47:04 51°13.754 2°55.706 -999 0.012505 0.069321 -0.444155
2005-10-06 06:47:08 51°13.757 2°55.701 -999 0.012505 0.069321 -0.444155
2005-10-06 06:47:14 51°13.761 2°55.694 -999 0.012505 0.069321 -0.444155
2005-10-06 06:47:19 51°13.765 2°55.689 -999 0.012505 0.069322 -0.444155
2005-10-06 06:47:24 51°13.769 2°55.683 -999 0.012505 0.069322 -0.444155
2005-10-06 06:47:29 51°13.773 2°55.677 -999 0.012505 0.069322 -0.444155
2005-10-06 06:47:34 51°13.778 2°55.671 -999 0.012505 0.069322 -0.444155
2005-10-06 06:47:39 51°13.783 2°55.665 -999 0.012505 0.069322 -0.444155
2005-10-06 06:47:44 51°13.788 2°55.659 -999 0.012505 0.069322 -0.444155
2005-10-06 06:47:48 51°13.792 2°55.655 -999 0.012505 0.069322 -0.444155
2005-10-06 06:47:54 51°13.799 2°55.648 -999 0.012505 0.069323 -0.444155
2005-10-06 06:47:59 51°13.805 2°55.642 -999 0.012505 0.069323 -0.444155
2005-10-06 06:48:04 51°13.811 2°55.637 -999 0.012505 0.069323 -0.444155
2005-10-06 06:48:09 51°13.817 2°55.632 -999 0.012505 0.069323 -0.444155
2005-10-06 06:48:14 51°13.824 2°55.629 -999 0.012505 0.069323 -0.444155
2005-10-06 06:48:19 51°13.831 2°55.625 -999 0.012505 0.069324 -0.444155
2005-10-06 06:48:24 51°13.838 2°55.621 -999 0.012505 0.069324 -0.444155
2005-10-06 06:48:29 51°13.845 2°55.616 -999 0.012505 0.069324 -0.444155
2005-10-06 06:48:34 51°13.853 2°55.611 -999 0.012505 0.069324 -0.444155
2005-10-06 06:48:39 51°13.86 2°55.608 -999 0.012505 0.069325 -0.444155
2005-10-06 06:48:44 51°13.868 2°55.603 -999 0.012505 0.069325 -0.444155
2005-10-06 06:48:49 51°13.875 2°55.599 -999 0.012505 0.069325 -0.444155
2005-10-06 06:48:54 51°13.882 2°55.595 -999 0.012505 0.069325 -0.444155
2005-10-06 06:48:59 51°13.889 2°55.591 -999 0.012505 0.069326 -0.444155
2005-10-06 06:49:04 51°13.895 2°55.587 -999 0.012505 0.069325 -0.444155
2005-10-06 06:49:09 51°13.901 2°55.584 -999 0.012505 0.069325 -0.444155
2005-10-06 06:49:14 51°13.906 2°55.581 -999 0.012505 0.069326 -0.444155
2005-10-06 06:49:19 51°13.911 2°55.578 -999 0.012505 0.069327 -0.444155
2005-10-06 06:49:24 51°13.914 2°55.576 -999 0.012505 0.069327 -0.444155
2005-10-06 06:49:28 51°13.916 2°55.575 -999 0.012505 0.069328 -0.444155
2005-10-06 06:49:34 51°13.919 2°55.573 -999 0.012505 0.069328 -0.444155
2005-10-06 06:49:39 51°13.921 2°55.572 -999 0.012505 0.069328 -0.444155
2005-10-06 06:49:44 51°13.923 2°55.571 -999 0.012505 0.069328 -0.444155
2005-10-06 06:49:49 51°13.925 2°55.569 -999 0.012505 0.069328 -0.444155
2005-10-06 06:49:54 51°13.927 2°55.568 -999 0.012505 0.069329 -0.444155
2005-10-06 06:49:59 51°13.93 2°55.567 -999 0.012505 0.069329 -0.444155
2005-10-06 06:50:04 51°13.932 2°55.565 -999 0.012505 0.069329 -0.444155
2005-10-06 06:50:09 51°13.935 2°55.564 -999 0.012505 0.069329 -0.444155
2005-10-06 06:50:14 51°13.938 2°55.562 -999 0.012505 0.069329 -0.444155
2005-10-06 06:50:19 51°13.941 2°55.56 -999 0.012505 0.069329 -0.444155
2005-10-06 06:50:24 51°13.944 2°55.558 -999 0.012505 0.069329 -0.444155
2005-10-06 06:50:28 51°13.947 2°55.556 -999 0.012505 0.069329 -0.444155
2005-10-06 06:50:34 51°13.952 2°55.553 -999 0.012505 0.069329 -0.444155
2005-10-06 06:50:39 51°13.956 2°55.55 -999 0.012505 0.06933 -0.444155
2005-10-06 06:50:44 51°13.96 2°55.547 -999 0.012505 0.06933 -0.444155
2005-10-06 06:50:49 51°13.965 2°55.544 -999 0.012505 0.06933 -0.444155
2005-10-06 06:50:54 51°13.969 2°55.541 -999 0.012505 0.069331 -0.444155
2005-10-06 06:50:59 51°13.974 2°55.537 -999 0.012505 0.069331 -0.444155
2005-10-06 06:51:04 51°13.979 2°55.534 -999 0.012505 0.069331 -0.444155
2005-10-06 06:51:09 51°13.984 2°55.53 -999 0.012505 0.069331 -0.444155
2005-10-06 06:51:14 51°13.99 2°55.526 -999 0.012505 0.069331 -0.444155
2005-10-06 06:51:19 51°13.995 2°55.523 -999 0.012505 0.069332 -0.444155
2005-10-06 06:51:24 51°14 2°55.519 -999 0.012505 0.069331 -0.444155
2005-10-06 06:51:29 51°14.006 2°55.515 -999 0.012505 0.069332 -0.444155
2005-10-06 06:51:34 51°14.012 2°55.511 -999 0.012505 0.069332 -0.444155
2005-10-06 06:51:39 51°14.018 2°55.506 -999 0.012505 0.069332 -0.444155
2005-10-06 06:51:44 51°14.024 2°55.502 -999 0.012505 0.069333 -0.444155
2005-10-06 06:51:49 51°14.031 2°55.497 -999 0.012505 0.069333 -0.444155
2005-10-06 06:51:54 51°14.037 2°55.492 -999 0.012505 0.069333 -0.444155
2005-10-06 06:51:59 51°14.044 2°55.487 -999 0.012505 0.069334 -0.444155
2005-10-06 06:52:04 51°14.051 2°55.482 -999 0.012505 0.069334 -0.444155
2005-10-06 06:52:08 51°14.057 2°55.478 -999 0.012505 0.069334 -0.444155
2005-10-06 06:52:14 51°14.066 2°55.472 -999 0.012505 0.069334 -0.444155
2005-10-06 06:52:19 51°14.073 2°55.466 -999 0.012505 0.069335 -0.444155
2005-10-06 06:52:24 51°14.081 2°55.461 -999 0.012505 0.069335 -0.444155
2005-10-06 06:52:28 51°14.087 2°55.457 -999 0.012505 0.069336 -0.444155
2005-10-06 06:52:34 51°14.096 2°55.449 -999 0.012505 0.069336 -0.444155
2005-10-06 06:52:39 51°14.104 2°55.443 -999 0.012505 0.069336 -0.444155
2005-10-06 06:52:44 51°14.112 2°55.436 -999 0.012505 0.069337 -0.444155
2005-10-06 06:52:48 51°14.118 2°55.43 -999 0.012505 0.069337 -0.444155
2005-10-06 06:52:54 51°14.128 2°55.421 -999 0.012505 0.069337 -0.444155
2005-10-06 06:52:59 51°14.136 2°55.414 -999 0.012505 0.069338 -0.444155
2005-10-06 06:53:04 51°14.145 2°55.406 -999 0.012505 0.069339 -0.444155
2005-10-06 06:53:08 51°14.151 2°55.4 -999 0.012505 0.069339 -0.444155
2005-10-06 06:53:14 51°14.162 2°55.389 -999 0.012505 0.069339 -0.444155
2005-10-06 06:53:19 51°14.17 2°55.38 -999 0.012505 0.069339 -0.444155
2005-10-06 06:53:24 51°14.179 2°55.37 -999 0.012505 0.069339 -0.444155
2005-10-06 06:53:29 51°14.188 2°55.361 -999 0.012505 0.06934 -0.444155
2005-10-06 06:53:34 51°14.197 2°55.352 -999 0.012505 0.06934 -0.444155
2005-10-06 06:53:39 51°14.205 2°55.342 -999 0.012505 0.06934 -0.444155
2005-10-06 06:53:44 51°14.214 2°55.332 -999 0.012505 0.069341 -0.444155
2005-10-06 06:53:48 51°14.222 2°55.324 -999 0.012505 0.069341 -0.444155
2005-10-06 06:53:54 51°14.232 2°55.312 -999 0.012505 0.069341 -0.444155
2005-10-06 06:53:59 51°14.241 2°55.301 -999 0.012505 0.069342 -0.444155
2005-10-06 06:54:04 51°14.249 2°55.289 -999 0.012505 0.069342 -0.444155
2005-10-06 06:54:09 51°14.257 2°55.278 -999 0.012505 0.069342 -0.444155
2005-10-06 06:54:14 51°14.265 2°55.265 -999 0.012505 0.069343 -0.444155
2005-10-06 06:54:19 51°14.272 2°55.252 -999 0.012505 0.069343 -0.444155
2005-10-06 06:54:24 51°14.28 2°55.239 -999 0.012505 0.069343 -0.444155
2005-10-06 06:54:29 51°14.287 2°55.225 -999 0.012505 0.069344 -0.444155
2005-10-06 06:54:34 51°14.295 2°55.212 -999 0.012505 0.069344 -0.444155
2005-10-06 06:54:39 51°14.302 2°55.198 -999 0.012505 0.069344 -0.444155
2005-10-06 06:54:44 51°14.309 2°55.184 -999 0.012505 0.069345 -0.444155
2005-10-06 06:54:49 51°14.316 2°55.17 -999 0.012505 0.069346 -0.444155
2005-10-06 06:54:54 51°14.322 2°55.155 -999 0.012505 0.069346 -0.444155
2005-10-06 06:54:59 51°14.329 2°55.141 -999 0.012505 0.069347 -0.444155
2005-10-06 06:55:04 51°14.335 2°55.126 -999 0.012505 0.069347 -0.444155
2005-10-06 06:55:09 51°14.342 2°55.111 -999 0.012505 0.069347 -0.444155
2005-10-06 06:55:14 51°14.348 2°55.096 -999 0.012505 0.069348 -0.444155
2005-10-06 06:55:19 51°14.355 2°55.081 -999 0.012505 0.069348 -0.444155
2005-10-06 06:55:24 51°14.361 2°55.066 -999 0.012505 0.069349 -0.444155
2005-10-06 06:55:29 51°14.367 2°55.05 -999 0.012505 0.069349 -0.444155
2005-10-06 06:55:34 51°14.373 2°55.035 -999 0.012505 0.069349 -0.444155
2005-10-06 06:55:39 51°14.379 2°55.019 -999 0.012505 0.06935 -0.444155
2005-10-06 06:55:44 51°14.384 2°55.003 -999 0.012505 0.06935 -0.444155
2005-10-06 06:55:48 51°14.388 2°54.99 -999 0.012505 0.06935 -0.444155
2005-10-06 06:55:54 51°14.394 2°54.97 -999 0.012505 0.069351 -0.444155
2005-10-06 06:55:59 51°14.399 2°54.954 -999 0.012505 0.069352 -0.444155
2005-10-06 06:56:04 51°14.404 2°54.937 -999 0.012505 0.069353 -0.444155
2005-10-06 06:56:09 51°14.408 2°54.919 -999 0.012505 0.069353 -0.444155
2005-10-06 06:56:14 51°14.413 2°54.901 -999 0.012505 0.069353 -0.444155
2005-10-06 06:56:19 51°14.417 2°54.883 -999 0.012505 0.069353 -0.444155
2005-10-06 06:56:24 51°14.421 2°54.865 -999 0.012505 0.069353 -0.444155
2005-10-06 06:56:28 51°14.423 2°54.85 -999 0.012505 0.069354 -0.444155
2005-10-06 06:56:34 51°14.428 2°54.827 -999 0.012505 0.069355 -0.444155
2005-10-06 06:56:39 51°14.432 2°54.808 -999 0.012505 0.069355 -0.444155
2005-10-06 06:56:44 51°14.436 2°54.788 -999 0.012505 0.069355 -0.444155
2005-10-06 06:56:48 51°14.44 2°54.773 -999 0.012505 0.069356 -0.444155
2005-10-06 06:56:54 51°14.446 2°54.749 -999 0.012505 0.069356 -0.444155
2005-10-06 06:56:59 51°14.45 2°54.728 -999 0.012505 0.069357 -0.444155
2005-10-06 06:57:04 51°14.455 2°54.707 -999 0.012505 0.069357 -0.444155
2005-10-06 06:57:09 51°14.46 2°54.685 -999 0.012505 0.069358 -0.444155
2005-10-06 06:57:14 51°14.465 2°54.663 -999 0.012505 0.069358 -0.444155
2005-10-06 06:57:19 51°14.47 2°54.641 -999 0.012505 0.069358 -0.444155
2005-10-06 06:57:24 51°14.475 2°54.618 -999 0.012505 0.069359 -0.444155
2005-10-06 06:57:29 51°14.481 2°54.595 -999 0.012505 0.069359 -0.444155
2005-10-06 06:57:34 51°14.486 2°54.572 -999 0.012505 0.069359 -0.444155
2005-10-06 06:57:39 51°14.49 2°54.549 -999 0.012505 0.069361 -0.444155
2005-10-06 06:57:44 51°14.496 2°54.525 -999 0.012505 0.069361 -0.444155
2005-10-06 06:57:49 51°14.501 2°54.501 -999 0.012505 0.069362 -0.444155
2005-10-06 06:57:54 51°14.506 2°54.477 -999 0.012505 0.069362 -0.444155
2005-10-06 06:57:59 51°14.512 2°54.453 -999 0.012505 0.069363 -0.444155
2005-10-06 06:58:04 51°14.518 2°54.428 -999 0.012505 0.069364 -0.444155
2005-10-06 06:58:09 51°14.524 2°54.404 -999 0.012505 0.069364 -0.444155
2005-10-06 06:58:14 51°14.529 2°54.379 -999 0.012505 0.069364 -0.444155
2005-10-06 06:58:19 51°14.535 2°54.354 -999 0.012505 0.069365 -0.444155
2005-10-06 06:58:24 51°14.54 2°54.329 -999 0.012505 0.069365 -0.444155
2005-10-06 06:58:29 51°14.545 2°54.303 -999 0.012505 0.069365 -0.444155
2005-10-06 06:58:34 51°14.551 2°54.277 -999 0.012505 0.069364 -0.444155
2005-10-06 06:58:39 51°14.557 2°54.252 -999 0.012505 0.069364 -0.444155
2005-10-06 06:58:44 51°14.563 2°54.227 -999 0.012505 0.069365 -0.444155
2005-10-06 06:58:49 51°14.57 2°54.202 -999 0.012505 0.069364 -0.444155
2005-10-06 06:58:54 51°14.576 2°54.177 -999 0.012505 0.069365 -0.444155
2005-10-06 06:58:59 51°14.582 2°54.152 -999 0.012505 0.069367 -0.444155
2005-10-06 06:59:04 51°14.588 2°54.126 -999 0.012505 0.069367 -0.444155
2005-10-06 06:59:09 51°14.594 2°54.1 -999 0.012505 0.069368 -0.444155
2005-10-06 06:59:14 51°14.599 2°54.074 -999 0.012505 0.069369 -0.444155
2005-10-06 06:59:19 51°14.606 2°54.048 -999 0.012505 0.06937 -0.444155
2005-10-06 06:59:24 51°14.612 2°54.022 -999 0.012505 0.069371 -0.444155
2005-10-06 06:59:29 51°14.618 2°53.996 -999 0.012505 0.069372 -0.444155
2005-10-06 06:59:34 51°14.624 2°53.97 -999 0.012505 0.069372 -0.444155
2005-10-06 06:59:39 51°14.631 2°53.943 -999 0.012505 0.069372 -0.444155
2005-10-06 06:59:44 51°14.637 2°53.917 -999 0.012505 0.069373 -0.444155
2005-10-06 06:59:49 51°14.644 2°53.891 -999 0.012505 0.069373 -0.444155
2005-10-06 06:59:54 51°14.651 2°53.865 -999 0.012505 0.069374 -0.444155
2005-10-06 06:59:59 51°14.658 2°53.839 -999 0.012505 0.069375 -0.444155
2005-10-06 07:00:04 51°14.665 2°53.813 -999 0.012505 0.069376 -0.444155
2005-10-06 07:00:09 51°14.671 2°53.787 -999 0.012505 0.069376 -0.444155
2005-10-06 07:00:14 51°14.677 2°53.761 -999 0.012505 0.069376 -0.444155
2005-10-06 07:00:19 51°14.683 2°53.734 -999 0.012505 0.069376 -0.444155
2005-10-06 07:00:24 51°14.689 2°53.708 -999 0.012505 0.069377 -0.444155
2005-10-06 07:00:29 51°14.696 2°53.682 -999 0.012505 0.069378 -0.444155
2005-10-06 07:00:34 51°14.702 2°53.655 -999 0.012505 0.069378 -0.444155
2005-10-06 07:00:39 51°14.709 2°53.629 -999 0.012505 0.069379 -0.444155
2005-10-06 07:00:44 51°14.714 2°53.602 -999 0.012505 0.06938 -0.444155
2005-10-06 07:00:49 51°14.717 2°53.574 -999 0.012505 0.069381 -0.444155
2005-10-06 07:00:54 51°14.719 2°53.546 -999 0.012505 0.069381 -0.444155
2005-10-06 07:00:59 51°14.72 2°53.517 -999 0.012505 0.069381 -0.444155
2005-10-06 07:01:04 51°14.719 2°53.489 -999 0.012505 0.069381 -0.444155
2005-10-06 07:01:09 51°14.718 2°53.46 -999 0.012505 0.069381 -0.444155
2005-10-06 07:01:14 51°14.717 2°53.431 -999 0.012505 0.069382 -0.444155
2005-10-06 07:01:19 51°14.715 2°53.403 -999 0.012505 0.069382 -0.444155
2005-10-06 07:01:23 51°14.712 2°53.38 -999 0.012505 0.069382 -0.444155
2005-10-06 07:01:28 51°14.71 2°53.351 -999 0.012505 0.069382 -0.444155
2005-10-06 07:01:34 51°14.707 2°53.317 -999 0.012505 0.069383 -0.444155
2005-10-06 07:01:39 51°14.705 2°53.288 -999 0.012505 0.069383 -0.444155
2005-10-06 07:01:44 51°14.702 2°53.259 -999 0.012505 0.069383 -0.444155
2005-10-06 07:01:49 51°14.7 2°53.23 -999 0.012505 0.069383 -0.444155
2005-10-06 07:01:54 51°14.698 2°53.202 -999 0.012505 0.069384 -0.444155
2005-10-06 07:01:59 51°14.697 2°53.172 -999 0.012505 0.069385 -0.444155
2005-10-06 07:02:04 51°14.696 2°53.144 -999 0.012505 0.069386 -0.444155
2005-10-06 07:02:08 51°14.696 2°53.12 -999 0.012505 0.069386 -0.444155
2005-10-06 07:02:14 51°14.695 2°53.085 -999 0.012505 0.069386 -0.444155
2005-10-06 07:02:19 51°14.695 2°53.056 -999 0.012505 0.069386 -0.444155
2005-10-06 07:02:24 51°14.694 2°53.027 -999 0.012505 0.069386 -0.444155
2005-10-06 07:02:29 51°14.694 2°52.998 -999 0.012505 0.069387 -0.444155
2005-10-06 07:02:34 51°14.694 2°52.968 -999 0.012505 0.069387 -0.444155
2005-10-06 07:02:39 51°14.694 2°52.939 -999 0.012505 0.069388 -0.444155
2005-10-06 07:02:44 51°14.694 2°52.91 -999 0.012505 0.069388 -0.444155
2005-10-06 07:02:49 51°14.693 2°52.881 -999 0.012505 0.069389 -0.444155
2005-10-06 07:02:54 51°14.693 2°52.851 -999 0.012505 0.06939 -0.444155
2005-10-06 07:02:59 51°14.692 2°52.822 -999 0.012505 0.069391 -0.444155
2005-10-06 07:03:04 51°14.69 2°52.793 -999 0.012505 0.069392 -0.444155
2005-10-06 07:03:09 51°14.688 2°52.764 -999 0.012505 0.069392 -0.444155
2005-10-06 07:03:14 51°14.685 2°52.734 -999 0.012505 0.069392 -0.444155
2005-10-06 07:03:19 51°14.683 2°52.705 -999 0.012505 0.069392 -0.444155
2005-10-06 07:03:24 51°14.68 2°52.677 -999 0.012505 0.069393 -0.444155
2005-10-06 07:03:29 51°14.677 2°52.647 -999 0.012505 0.069394 -0.444155
2005-10-06 07:03:34 51°14.674 2°52.618 -999 0.012505 0.069394 -0.444155
2005-10-06 07:03:39 51°14.67 2°52.589 -999 0.012505 0.069394 -0.444155
2005-10-06 07:03:44 51°14.667 2°52.561 -999 0.012505 0.069394 -0.444155
2005-10-06 07:03:49 51°14.664 2°52.532 -999 0.012505 0.069395 -0.444155
2005-10-06 07:03:54 51°14.661 2°52.503 -999 0.012505 0.069395 -0.444155
2005-10-06 07:03:59 51°14.657 2°52.474 -999 0.012505 0.069396 -0.444155
2005-10-06 07:04:04 51°14.654 2°52.445 -999 0.012505 0.069396 -0.444155
2005-10-06 07:04:09 51°14.652 2°52.416 -999 0.012505 0.069396 -0.444155
2005-10-06 07:04:14 51°14.649 2°52.386 -999 0.012505 0.069396 -0.444155
2005-10-06 07:04:19 51°14.646 2°52.357 -999 0.012505 0.069397 -0.444155
2005-10-06 07:04:24 51°14.643 2°52.328 -999 0.012505 0.069397 -0.444155
2005-10-06 07:04:29 51°14.64 2°52.299 -999 0.012505 0.069398 -0.444155
2005-10-06 07:04:34 51°14.636 2°52.271 -999 0.012505 0.069398 -0.444155
2005-10-06 07:04:39 51°14.632 2°52.242 -999 0.012505 0.069399 -0.444155
2005-10-06 07:04:44 51°14.627 2°52.213 -999 0.012505 0.069399 -0.444155
2005-10-06 07:04:49 51°14.622 2°52.185 -999 0.012505 0.0694 -0.444155
2005-10-06 07:04:54 51°14.617 2°52.157 -999 0.012505 0.0694 -0.444155
2005-10-06 07:04:59 51°14.611 2°52.129 -999 0.012505 0.0694 -0.444155
2005-10-06 07:05:04 51°14.605 2°52.101 -999 0.012505 0.0694 -0.444155
2005-10-06 07:05:09 51°14.599 2°52.074 -999 0.012505 0.0694 -0.444155
2005-10-06 07:05:14 51°14.593 2°52.046 -999 0.012505 0.069401 -0.444155
2005-10-06 07:05:19 51°14.587 2°52.018 -999 0.012505 0.069401 -0.444155
2005-10-06 07:05:23 51°14.582 2°51.995 -999 0.012505 0.069402 -0.444155
2005-10-06 07:05:29 51°14.575 2°51.962 -999 0.012505 0.069402 -0.444155
2005-10-06 07:05:34 51°14.57 2°51.934 -999 0.012505 0.069402 -0.444155
2005-10-06 07:05:39 51°14.564 2°51.908 -999 0.012505 0.069402 -0.444155
2005-10-06 07:05:44 51°14.559 2°51.882 -999 0.012505 0.069404 -0.444155
2005-10-06 07:05:49 51°14.555 2°51.858 -999 0.012505 0.069404 -0.444155
2005-10-06 07:05:54 51°14.55 2°51.834 -999 0.012505 0.069404 -0.444155
2005-10-06 07:05:59 51°14.545 2°51.811 -999 0.012505 0.069405 -0.444155
2005-10-06 07:06:04 51°14.541 2°51.789 -999 0.012505 0.069405 -0.444155
2005-10-06 07:06:08 51°14.538 2°51.771 -999 0.012505 0.069405 -0.444155
2005-10-06 07:06:14 51°14.532 2°51.747 -999 0.012505 0.069406 -0.444155
2005-10-06 07:06:19 51°14.529 2°51.727 -999 0.012505 0.069406 -0.444155
2005-10-06 07:06:24 51°14.525 2°51.708 -999 0.012505 0.069406 -0.444155
2005-10-06 07:06:28 51°14.521 2°51.693 -999 0.012505 0.069406 -0.444155
2005-10-06 07:06:34 51°14.517 2°51.671 -999 0.012505 0.069407 -0.444155
2005-10-06 07:06:39 51°14.513 2°51.654 -999 0.012505 0.069407 -0.444155
2005-10-06 07:06:44 51°14.509 2°51.637 -999 0.012505 0.069408 -0.444155
2005-10-06 07:06:49 51°14.505 2°51.62 -999 0.012505 0.069408 -0.444155
2005-10-06 07:06:54 51°14.502 2°51.603 -999 0.012505 0.069409 -0.444155
2005-10-06 07:06:59 51°14.498 2°51.587 -999 0.012505 0.069408 -0.444155
2005-10-06 07:07:04 51°14.494 2°51.571 -999 0.012505 0.069409 -0.444155
2005-10-06 07:07:09 51°14.491 2°51.555 -999 0.012505 0.069409 -0.444155
2005-10-06 07:07:14 51°14.487 2°51.54 -999 0.012505 0.069409 -0.444155
2005-10-06 07:07:19 51°14.484 2°51.524 -999 0.012505 0.069409 -0.444155
2005-10-06 07:07:24 51°14.481 2°51.509 -999 0.012505 0.06941 -0.444155
2005-10-06 07:07:29 51°14.477 2°51.494 -999 0.012505 0.06941 -0.444155
2005-10-06 07:07:34 51°14.474 2°51.479 -999 0.012505 0.06941 -0.444155
2005-10-06 07:07:39 51°14.471 2°51.464 -999 0.012505 0.06941 -0.444155
2005-10-06 07:07:43 51°14.469 2°51.453 -999 0.012505 0.069411 -0.444155
2005-10-06 07:07:49 51°14.466 2°51.437 -999 0.012505 0.069411 -0.444155
2005-10-06 07:07:54 51°14.463 2°51.424 -999 0.012505 0.069412 -0.444155
2005-10-06 07:07:59 51°14.46 2°51.411 -999 0.012505 0.069412 -0.444155
2005-10-06 07:08:03 51°14.458 2°51.401 -999 0.012505 0.069412 -0.444155
2005-10-06 07:08:09 51°14.455 2°51.387 -999 0.012505 0.069413 -0.444155
2005-10-06 07:08:14 51°14.452 2°51.375 -999 0.012505 0.069413 -0.444155
2005-10-06 07:08:19 51°14.45 2°51.364 -999 0.012505 0.069413 -0.444155
2005-10-06 07:08:24 51°14.447 2°51.352 -999 0.012505 0.069414 -0.444155
2005-10-06 07:08:29 51°14.445 2°51.342 -999 0.012505 0.069414 -0.444155
2005-10-06 07:08:34 51°14.443 2°51.331 -999 0.012505 0.069414 -0.444155
2005-10-06 07:08:39 51°14.441 2°51.32 -999 0.012505 0.069414 -0.444155
2005-10-06 07:08:44 51°14.438 2°51.31 -999 0.012505 0.069415 -0.444155
2005-10-06 07:08:48 51°14.437 2°51.302 -999 0.012505 0.069415 -0.444155
2005-10-06 07:08:54 51°14.434 2°51.29 -999 0.012505 0.069416 -0.444155
2005-10-06 07:08:59 51°14.432 2°51.281 -999 0.012505 0.069416 -0.444155
2005-10-06 07:09:04 51°14.43 2°51.271 -999 0.012505 0.069416 -0.444155
2005-10-06 07:09:09 51°14.428 2°51.262 -999 0.012505 0.069416 -0.444155
2005-10-06 07:09:14 51°14.426 2°51.253 -999 0.012505 0.069416 -0.444155
2005-10-06 07:09:19 51°14.424 2°51.244 -999 0.012505 0.069416 -0.444155
2005-10-06 07:09:24 51°14.422 2°51.235 -999 0.012505 0.069417 -0.444155
2005-10-06 07:09:29 51°14.42 2°51.226 -999 0.012505 0.069417 -0.444155
2005-10-06 07:09:34 51°14.418 2°51.218 -999 0.012505 0.069456 -0.444155
2005-10-06 07:09:39 51°14.415 2°51.209 -999 0.012505 0.069456 -0.444155
2005-10-06 07:09:44 51°14.413 2°51.201 -999 0.012505 0.069561 -0.444155
2005-10-06 07:09:49 51°14.411 2°51.193 -999 2.365221 15.595351 -0.410446
2005-10-06 07:09:54 51°14.409 2°51.184 -999 3.796144 25.356945 0.97164
2005-10-06 07:09:59 51°14.407 2°51.176 -999 4.065087 27.603945 -0.241899
2005-10-06 07:10:04 51°14.405 2°51.168 -999 4.065087 27.603945 -0.241899
2005-10-06 07:10:09 51°14.403 2°51.16 -999 4.163189 29.374209 -0.545283
2005-10-06 07:10:14 51°14.401 2°51.152 -999 4.203133 30.780883 -0.477864
2005-10-06 07:10:19 51°14.399 2°51.144 -999 4.181889 31.400424 -0.545283
2005-10-06 07:10:24 51°14.397 2°51.137 -999 4.147265 31.632884 -0.612702
2005-10-06 07:10:29 51°14.395 2°51.129 -999 4.112226 31.720878 -0.646411
2005-10-06 07:10:34 51°14.393 2°51.122 -999 4.083822 31.712684 -0.680121
2005-10-06 07:10:39 51°14.391 2°51.114 -999 4.083822 31.712684 -0.680121
2005-10-06 07:10:44 51°14.389 2°51.107 -999 4.048265 31.560815 -0.680121
2005-10-06 07:10:49 51°14.387 2°51.1 -999 4.048164 31.676613 -0.680121
2005-10-06 07:10:54 51°14.385 2°51.092 -999 4.052105 31.810478 -0.680121
2005-10-06 07:10:59 51°14.384 2°51.085 -999 4.048477 31.84602 -0.680121
2005-10-06 07:11:04 51°14.382 2°51.078 -999 4.038837 31.800067 -0.680121
2005-10-06 07:11:08 51°14.38 2°51.072 -999 4.038837 31.800067 -0.680121
2005-10-06 07:11:14 51°14.379 2°51.063 -999 4.036765 31.815285 -0.680121
2005-10-06 07:11:19 51°14.377 2°51.056 -999 4.026606 31.746332 -0.680121
2005-10-06 07:11:24 51°14.375 2°51.049 -999 4.020076 31.713155 -0.71383
2005-10-06 07:11:28 51°14.373 2°51.044 -999 4.033034 31.842252 -0.71383
2005-10-06 07:11:34 51°14.372 2°51.036 -999 4.033034 31.842252 -0.71383
2005-10-06 07:11:39 51°14.37 2°51.029 -999 4.030753 31.835337 -0.71383
2005-10-06 07:11:44 51°14.368 2°51.022 -999 4.028058 31.823449 -0.71383
2005-10-06 07:11:49 51°14.366 2°51.015 -999 4.029924 31.856357 -0.71383
2005-10-06 07:11:54 51°14.365 2°51.009 -999 4.021424 31.797254 -0.71383
2005-10-06 07:11:59 51°14.363 2°51.002 -999 4.018833 31.781652 -0.71383
2005-10-06 07:12:04 51°14.361 2°50.995 -999 4.019662 31.795549 -0.71383
2005-10-06 07:12:09 51°14.36 2°50.989 -999 4.019662 31.795549 -0.71383
2005-10-06 07:12:14 51°14.358 2°50.982 -999 4.007224 31.691804 -0.71383
2005-10-06 07:12:19 51°14.356 2°50.976 -999 4.021217 31.815851 -0.71383
2005-10-06 07:12:24 51°14.355 2°50.969 -999 4.020699 31.821172 -0.71383
2005-10-06 07:12:29 51°14.353 2°50.963 -999 4.027748 31.89395 -0.71383
2005-10-06 07:12:34 51°14.351 2°50.957 -999 4.025779 31.883176 -0.74754
2005-10-06 07:12:39 51°14.349 2°50.95 -999 4.025779 31.883176 -0.74754
2005-10-06 07:12:44 51°14.348 2°50.944 -999 4.023499 31.867669 -0.71383
2005-10-06 07:12:49 51°14.346 2°50.937 -999 4.011578 31.763096 -0.71383
2005-10-06 07:12:54 51°14.344 2°50.931 -999 4.007846 31.732139 -0.71383
2005-10-06 07:12:59 51°14.343 2°50.925 -999 4.034383 31.967776 -0.71383
2005-10-06 07:13:04 51°14.341 2°50.919 -999 4.034383 31.967776 -0.71383
2005-10-06 07:13:09 51°14.339 2°50.912 -999 4.034901 31.97501 -0.71383
2005-10-06 07:13:14 51°14.337 2°50.906 -999 4.035109 31.98016 -0.71383
2005-10-06 07:13:19 51°14.336 2°50.9 -999 4.034902 31.986296 -0.71383
2005-10-06 07:13:24 51°14.334 2°50.894 -999 4.034487 31.992595 -0.71383
2005-10-06 07:13:29 51°14.332 2°50.887 -999 4.033969 31.994658 -0.71383
2005-10-06 07:13:34 51°14.331 2°50.881 -999 4.033762 31.996813 -0.71383
2005-10-06 07:13:39 51°14.329 2°50.875 -999 4.033762 31.996813 -0.71383
2005-10-06 07:13:44 51°14.327 2°50.869 -999 4.033347 32.00046 -0.74754
2005-10-06 07:13:49 51°14.325 2°50.863 -999 4.032933 32.000783 -0.71383
2005-10-06 07:13:54 51°14.324 2°50.857 -999 4.032725 32.002275 -0.71383
2005-10-06 07:13:59 51°14.322 2°50.85 -999 4.032311 32.001267 -0.71383
2005-10-06 07:14:04 51°14.32 2°50.844 -999 4.032207 31.997024 -0.74754
2005-10-06 07:14:08 51°14.319 2°50.84 -999 4.032207 31.997024 -0.74754
2005-10-06 07:14:14 51°14.317 2°50.832 -999 4.032311 31.995945 -0.71383
2005-10-06 07:14:19 51°14.315 2°50.826 -999 4.032414 31.998193 -0.71383
2005-10-06 07:14:24 51°14.313 2°50.82 -999 4.032518 32.002437 -0.71383
2005-10-06 07:14:29 51°14.312 2°50.814 -999 4.032311 32.005926 -0.74754
2005-10-06 07:14:34 51°14.31 2°50.808 -999 4.032207 32.00634 -0.71383
2005-10-06 07:14:39 51°14.308 2°50.802 -999 4.032207 32.00634 -0.71383
2005-10-06 07:14:44 51°14.307 2°50.796 -999 4.032207 32.00634 -0.74754
2005-10-06 07:14:49 51°14.305 2°50.79 -999 4.032103 32.006088 -0.74754
2005-10-06 07:14:54 51°14.303 2°50.784 -999 4.032 32.007167 -0.74754
2005-10-06 07:14:59 51°14.302 2°50.778 -999 4.032 32.007833 -0.71383
2005-10-06 07:15:04 51°14.3 2°50.772 -999 4.032 32.007833 -0.71383
2005-10-06 07:15:08 51°14.299 2°50.768 -999 4.032 32.009165 -0.74754
2005-10-06 07:15:14 51°14.297 2°50.76 -999 4.031896 32.01091 -0.71383
2005-10-06 07:15:19 51°14.295 2°50.755 -999 4.032104 32.01208 -0.71383
2005-10-06 07:15:24 51°14.293 2°50.749 -999 4.032207 32.016327 -0.71383
2005-10-06 07:15:29 51°14.292 2°50.743 -999 3.979342 31.550126 -0.71383
2005-10-06 07:15:34 51°14.29 2°50.737 -999 4.032415 32.019495 -0.71383
2005-10-06 07:15:39 51°14.288 2°50.731 -999 4.032415 32.019495 -0.71383
2005-10-06 07:15:44 51°14.287 2°50.725 -999 4.032311 32.022575 -0.71383
2005-10-06 07:15:49 51°14.285 2°50.719 -999 4.032 32.021154 -0.71383
2005-10-06 07:15:54 51°14.283 2°50.713 -999 4.032311 32.024574 -0.71383
2005-10-06 07:15:59 51°14.282 2°50.708 -999 4.030963 32.015306 -0.71383
2005-10-06 07:16:04 51°14.28 2°50.702 -999 4.032415 32.029491 -0.71383
2005-10-06 07:16:09 51°14.278 2°50.696 -999 4.032415 32.029491 -0.71383
2005-10-06 07:16:14 51°14.277 2°50.69 -999 4.032311 32.027906 -0.71383
2005-10-06 07:16:19 51°14.275 2°50.684 -999 4.031896 32.023568 -0.71383
2005-10-06 07:16:24 51°14.274 2°50.678 -999 4.033037 32.034333 -0.71383
2005-10-06 07:16:29 51°14.272 2°50.673 -999 4.032104 32.026737 -0.71383
2005-10-06 07:16:34 51°14.27 2°50.667 -999 4.032415 32.031491 -0.71383
2005-10-06 07:16:39 51°14.268 2°50.661 -999 4.032415 32.031491 -0.71383
2005-10-06 07:16:44 51°14.267 2°50.655 -999 4.03314 32.039919 -0.680121
2005-10-06 07:16:49 51°14.265 2°50.649 -999 4.032829 32.037831 -0.680121
2005-10-06 07:16:54 51°14.263 2°50.643 -999 4.03283 32.039165 -0.680121
2005-10-06 07:16:59 51°14.262 2°50.637 -999 4.033659 32.047845 -0.680121
2005-10-06 07:17:04 51°14.26 2°50.632 -999 4.033659 32.047845 -0.680121
2005-10-06 07:17:09 51°14.258 2°50.626 -999 4.033037 32.042336 -0.680121
2005-10-06 07:17:14 51°14.257 2°50.62 -999 4.034488 32.056527 -0.680121
2005-10-06 07:17:19 51°14.255 2°50.614 -999 4.034177 32.055774 -0.680121
2005-10-06 07:17:24 51°14.253 2°50.608 -999 4.034074 32.054855 -0.680121
2005-10-06 07:17:29 51°14.252 2°50.603 -999 4.034488 32.058529 -0.680121
2005-10-06 07:17:34 51°14.25 2°50.597 -999 4.034385 32.058278 -0.680121
2005-10-06 07:17:39 51°14.249 2°50.591 -999 4.034385 32.058278 -0.680121
2005-10-06 07:17:44 51°14.247 2°50.585 -999 4.034281 32.055357 -0.680121
2005-10-06 07:17:49 51°14.245 2°50.58 -999 4.034799 32.060617 -0.680121
2005-10-06 07:17:54 51°14.244 2°50.574 -999 4.034384 32.054274 -0.680121
2005-10-06 07:17:59 51°14.242 2°50.568 -999 4.034177 32.050435 -0.680121
2005-10-06 07:18:04 51°14.24 2°50.562 -999 4.034592 32.05878 -0.680121
2005-10-06 07:18:09 51°14.238 2°50.556 -999 4.034592 32.05878 -0.680121
2005-10-06 07:18:14 51°14.237 2°50.551 -999 4.034074 32.057525 -0.680121
2005-10-06 07:18:19 51°14.235 2°50.545 -999 4.03511 32.068714 -0.680121
2005-10-06 07:18:24 51°14.234 2°50.539 -999 4.034488 32.061867 -0.680121
2005-10-06 07:18:29 51°14.232 2°50.533 -999 4.034074 32.056858 -0.680121
2005-10-06 07:18:34 51°14.23 2°50.528 -999 4.034074 32.056858 -0.680121
2005-10-06 07:18:39 51°14.229 2°50.522 -999 4.034799 32.064623 -0.680121
2005-10-06 07:18:44 51°14.227 2°50.516 -999 4.034799 32.065291 -0.680121
2005-10-06 07:18:49 51°14.225 2°50.511 -999 4.034385 32.062284 -0.680121
2005-10-06 07:18:54 51°14.223 2°50.505 -999 4.035214 32.070301 -0.680121
2005-10-06 07:18:59 51°14.222 2°50.499 -999 4.034592 32.066792 -0.680121
2005-10-06 07:19:04 51°14.22 2°50.493 -999 4.034281 32.064704 -0.680121
2005-10-06 07:19:08 51°14.219 2°50.489 -999 4.034281 32.064704 -0.680121
2005-10-06 07:19:14 51°14.217 2°50.482 -999 4.032622 32.050006 -0.680121
2005-10-06 07:19:19 51°14.215 2°50.476 -999 4.035007 32.071135 -0.680121
2005-10-06 07:19:24 51°14.214 2°50.471 -999 4.035421 32.074142 -0.680121
2005-10-06 07:19:29 51°14.212 2°50.465 -999 4.036458 32.082661 -0.680121
2005-10-06 07:19:34 51°14.21 2°50.459 -999 4.035732 32.074894 -0.680121
2005-10-06 07:19:39 51°14.209 2°50.454 -999 4.035732 32.074894 -0.680121
2005-10-06 07:19:44 51°14.207 2°50.448 -999 4.035836 32.076481 -0.680121
2005-10-06 07:19:49 51°14.205 2°50.442 -999 4.037287 32.090011 -0.680121
2005-10-06 07:19:54 51°14.204 2°50.436 -999 4.034177 32.065121 -0.680121
2005-10-06 07:19:59 51°14.202 2°50.431 -999 4.037184 32.095108 -0.680121
2005-10-06 07:20:04 51°14.201 2°50.425 -999 4.036976 32.093939 -0.680121
2005-10-06 07:20:09 51°14.199 2°50.419 -999 4.036976 32.093939 -0.680121
2005-10-06 07:20:14 51°14.198 2°50.413 -999 4.036562 32.090932 -0.680121
2005-10-06 07:20:19 51°14.196 2°50.408 -999 4.036458 32.09135 -0.680121
2005-10-06 07:20:24 51°14.194 2°50.402 -999 4.037184 32.097783 -0.680121
2005-10-06 07:20:29 51°14.193 2°50.396 -999 4.036976 32.094607 -0.680121
2005-10-06 07:20:34 51°14.191 2°50.391 -999 4.036976 32.094607 -0.680121
2005-10-06 07:20:39 51°14.189 2°50.385 -999 4.034074 32.070214 -0.680121
2005-10-06 07:20:44 51°14.188 2°50.379 -999 4.035629 32.085335 -0.680121
2005-10-06 07:20:49 51°14.186 2°50.373 -999 4.035629 32.086003 -0.680121
2005-10-06 07:20:54 51°14.184 2°50.367 -999 4.033556 32.068292 -0.680121
2005-10-06 07:20:59 51°14.183 2°50.362 -999 4.033763 32.069462 -0.680121
2005-10-06 07:21:04 51°14.181 2°50.356 -999 4.034281 32.070716 -0.680121
2005-10-06 07:21:08 51°14.18 2°50.352 -999 4.034281 32.070716 -0.680121
2005-10-06 07:21:14 51°14.178 2°50.345 -999 4.034696 32.073723 -0.680121
2005-10-06 07:21:19 51°14.176 2°50.339 -999 4.033452 32.063365 -0.680121
2005-10-06 07:21:24 51°14.174 2°50.333 -999 4.035318 32.079905 -0.680121
2005-10-06 07:21:29 51°14.173 2°50.328 -999 4.034385 32.071635 -0.680121
2005-10-06 07:21:34 51°14.171 2°50.322 -999 4.034903 32.076897 -0.680121
2005-10-06 07:21:39 51°14.169 2°50.316 -999 4.034903 32.076897 -0.680121
2005-10-06 07:21:44 51°14.168 2°50.31 -999 4.034696 32.076396 -0.646411
2005-10-06 07:21:48 51°14.166 2°50.306 -999 4.03397 32.0713 -0.680121
2005-10-06 07:21:54 51°14.165 2°50.299 -999 4.034178 32.073806 -0.680121
2005-10-06 07:21:59 51°14.163 2°50.293 -999 4.03594 32.089429 -0.680121
2005-10-06 07:22:04 51°14.161 2°50.288 -999 4.03594 32.089429 -0.680121
2005-10-06 07:22:09 51°14.16 2°50.282 -999 4.03511 32.082077 -0.680121
2005-10-06 07:22:14 51°14.158 2°50.276 -999 4.036665 32.095194 -0.680121
2005-10-06 07:22:19 51°14.157 2°50.27 -999 4.036665 32.094525 -0.680121
2005-10-06 07:22:24 51°14.155 2°50.265 -999 4.037598 32.102796 -0.680121
2005-10-06 07:22:29 51°14.153 2°50.259 -999 4.038013 32.10848 -0.680121
2005-10-06 07:22:34 51°14.152 2°50.253 -999 4.038013 32.10848 -0.680121
2005-10-06 07:22:39 51°14.15 2°50.247 -999 4.038013 32.111156 -0.646411
2005-10-06 07:22:44 51°14.148 2°50.242 -999 4.038946 32.120098 -0.646411
2005-10-06 07:22:48 51°14.147 2°50.237 -999 4.038428 32.116171 -0.646411
2005-10-06 07:22:54 51°14.145 2°50.23 -999 4.038428 32.116841 -0.680121
2005-10-06 07:22:59 51°14.144 2°50.225 -999 4.038324 32.115921 -0.646411
2005-10-06 07:23:04 51°14.142 2°50.219 -999 4.03905 32.124365 -0.646411
2005-10-06 07:23:09 51°14.141 2°50.213 -999 4.03905 32.124365 -0.646411
2005-10-06 07:23:14 51°14.139 2°50.207 -999 4.039361 32.129132 -0.680121
2005-10-06 07:23:19 51°14.137 2°50.202 -999 4.038532 32.121776 -0.646411
2005-10-06 07:23:24 51°14.136 2°50.196 -999 4.038635 32.122696 -0.680121
2005-10-06 07:23:29 51°14.134 2°50.19 -999 4.038532 32.122446 -0.680121
2005-10-06 07:23:34 51°14.133 2°50.184 -999 4.038221 32.119688 -0.680121
2005-10-06 07:23:39 51°14.131 2°50.179 -999 4.038221 32.119688 -0.680121
2005-10-06 07:23:44 51°14.129 2°50.173 -999 4.03791 32.114921 -0.680121
2005-10-06 07:23:49 51°14.128 2°50.167 -999 4.038635 32.120687 -0.680121
2005-10-06 07:23:54 51°14.126 2°50.162 -999 4.038946 32.124115 -0.680121
2005-10-06 07:23:59 51°14.125 2°50.156 -999 4.039153 32.124615 -0.680121
2005-10-06 07:24:04 51°14.123 2°50.15 -999 4.039153 32.124615 -0.680121
2005-10-06 07:24:09 51°14.121 2°50.145 -999 4.039153 32.124615 -0.680121
2005-10-06 07:24:14 51°14.12 2°50.139 -999 4.039775 32.130801 -0.646411
2005-10-06 07:24:19 51°14.118 2°50.133 -999 4.039983 32.133309 -0.680121
2005-10-06 07:24:24 51°14.117 2°50.127 -999 4.040294 32.139417 -0.646411
2005-10-06 07:24:29 51°14.115 2°50.122 -999 4.039776 32.134819 -0.680121
2005-10-06 07:24:34 51°14.113 2°50.116 -999 4.039672 32.1339 -0.646411
2005-10-06 07:24:39 51°14.112 2°50.111 -999 4.039672 32.1339 -0.646411
2005-10-06 07:24:44 51°14.11 2°50.105 -999 4.040916 32.144934 -0.646411
2005-10-06 07:24:49 51°14.109 2°50.099 -999 4.040812 32.144014 -0.646411
2005-10-06 07:24:54 51°14.107 2°50.094 -999 4.041331 32.149282 -0.646411
2005-10-06 07:24:59 51°14.105 2°50.088 -999 4.041849 32.15388 -0.646411
2005-10-06 07:25:04 51°14.104 2°50.083 -999 4.041849 32.15321 -0.646411
2005-10-06 07:25:09 51°14.102 2°50.077 -999 4.041849 32.15321 -0.646411
2005-10-06 07:25:14 51°14.101 2°50.071 -999 4.042367 32.158479 -0.646411
2005-10-06 07:25:19 51°14.099 2°50.066 -999 4.041745 32.153631 -0.646411
2005-10-06 07:25:24 51°14.097 2°50.06 -999 4.042056 32.15572 -0.646411
2005-10-06 07:25:29 51°14.096 2°50.054 -999 4.042886 32.163077 -0.646411
2005-10-06 07:25:34 51°14.094 2°50.049 -999 4.042782 32.162157 -0.646411
2005-10-06 07:25:39 51°14.092 2°50.043 -999 4.042782 32.162157 -0.646411
2005-10-06 07:25:44 51°14.091 2°50.038 -999 4.042989 32.166008 -0.646411
2005-10-06 07:25:49 51°14.089 2°50.032 -999 4.042989 32.166679 -0.646411
2005-10-06 07:25:54 51°14.088 2°50.026 -999 4.042989 32.166679 -0.646411
2005-10-06 07:25:59 51°14.086 2°50.021 -999 4.0433 32.170779 -0.646411
2005-10-06 07:26:04 51°14.084 2°50.015 -999 4.043093 32.16961 -0.646411
2005-10-06 07:26:09 51°14.082 2°50.01 -999 4.043093 32.16961 -0.646411
2005-10-06 07:26:14 51°14.081 2°50.004 -999 4.041331 32.153974 -0.646411
2005-10-06 07:26:19 51°14.079 2°49.998 -999 4.042471 32.163421 -0.646411
2005-10-06 07:26:24 51°14.078 2°49.993 -999 4.041849 32.158573 -0.646411
2005-10-06 07:26:29 51°14.076 2°49.987 -999 4.042575 32.165011 -0.646411
2005-10-06 07:26:34 51°14.075 2°49.982 -999 4.04102 32.152556 -0.646411
2005-10-06 07:26:39 51°14.073 2°49.976 -999 4.04102 32.152556 -0.646411
2005-10-06 07:26:44 51°14.071 2°49.971 -999 4.043508 32.175973 -0.646411
2005-10-06 07:26:49 51°14.07 2°49.965 -999 4.041538 32.158496 -0.646411
2005-10-06 07:26:54 51°14.068 2°49.96 -999 4.043404 32.175053 -0.646411
2005-10-06 07:26:59 51°14.067 2°49.954 -999 4.04413 32.18015 -0.646411
2005-10-06 07:27:04 51°14.065 2°49.948 -999 4.043819 32.177391 -0.646411
2005-10-06 07:27:09 51°14.064 2°49.943 -999 4.043819 32.177391 -0.646411
2005-10-06 07:27:14 51°14.062 2°49.937 -999 4.043197 32.171872 -0.646411
2005-10-06 07:27:19 51°14.061 2°49.932 -999 4.044026 32.179902 -0.646411
2005-10-06 07:27:24 51°14.059 2°49.926 -999 4.044648 32.185421 -0.646411
2005-10-06 07:27:29 51°14.058 2°49.92 -999 4.044752 32.187012 -0.646411
2005-10-06 07:27:34 51°14.056 2°49.915 -999 4.044752 32.187012 -0.646411
2005-10-06 07:27:39 51°14.055 2°49.909 -999 4.043611 32.176893 -0.612702
2005-10-06 07:27:44 51°14.053 2°49.904 -999 4.044026 32.179902 -0.646411
2005-10-06 07:27:49 51°14.052 2°49.898 -999 4.04413 32.181492 -0.646411
2005-10-06 07:27:54 51°14.05 2°49.892 -999 4.044544 32.186514 -0.612702
2005-10-06 07:27:59 51°14.048 2°49.887 -999 4.042989 32.172715 -0.612702
2005-10-06 07:28:04 51°14.047 2°49.881 -999 4.044855 32.189946 -0.612702
2005-10-06 07:28:09 51°14.045 2°49.876 -999 4.044855 32.189946 -0.612702
2005-10-06 07:28:14 51°14.044 2°49.87 -999 4.045063 32.191786 -0.612702
2005-10-06 07:28:19 51°14.042 2°49.865 -999 4.045892 32.197803 -0.612702
2005-10-06 07:28:24 51°14.041 2°49.859 -999 4.045063 32.191114 -0.612702
2005-10-06 07:28:29 51°14.039 2°49.854 -999 4.044233 32.184426 -0.612702
2005-10-06 07:28:34 51°14.038 2°49.848 -999 4.046929 32.207675 -0.612702
2005-10-06 07:28:39 51°14.036 2°49.842 -999 4.046929 32.207675 -0.612702
2005-10-06 07:28:44 51°14.035 2°49.837 -999 4.046721 32.205835 -0.612702
2005-10-06 07:28:49 51°14.033 2°49.831 -999 4.044233 32.183083 -0.612702
2005-10-06 07:28:54 51°14.032 2°49.826 -999 4.047862 32.216628 -0.612702
2005-10-06 07:28:59 51°14.03 2°49.82 -999 4.04724 32.213122 -0.612702
2005-10-06 07:29:04 51°14.029 2°49.815 -999 4.047343 32.216058 -0.612702
2005-10-06 07:29:09 51°14.027 2°49.809 -999 4.047343 32.216058 -0.612702
2005-10-06 07:29:14 51°14.026 2°49.803 -999 4.04724 32.21581 -0.612702
2005-10-06 07:29:19 51°14.024 2°49.798 -999 4.046825 32.212129 -0.612702
2005-10-06 07:29:24 51°14.023 2°49.792 -999 4.046203 32.206607 -0.612702
2005-10-06 07:29:29 51°14.021 2°49.787 -999 4.043611 32.182932 -0.612702
2005-10-06 07:29:34 51°14.019 2°49.781 -999 4.043611 32.182932 -0.612702
2005-10-06 07:29:39 51°14.018 2°49.776 -999 4.044648 32.192133 -0.612702
2005-10-06 07:29:44 51°14.016 2°49.77 -999 4.047758 32.219067 -0.612702
2005-10-06 07:29:49 51°14.015 2°49.765 -999 4.047758 32.217723 -0.612702
2005-10-06 07:29:54 51°14.013 2°49.759 -999 4.048276 32.221652 -0.612702
2005-10-06 07:29:59 51°14.012 2°49.754 -999 4.047654 32.214787 -0.612702
2005-10-06 07:30:04 51°14.01 2°49.748 -999 4.049106 32.226997 -0.612702
2005-10-06 07:30:09 51°14.009 2°49.743 -999 4.049106 32.226997 -0.612702
2005-10-06 07:30:14 51°14.007 2°49.737 -999 4.048795 32.224909 -0.612702
2005-10-06 07:30:19 51°14.006 2°49.732 -999 4.049417 32.233791 -0.612702
2005-10-06 07:30:24 51°14.004 2°49.726 -999 4.049209 32.23464 -0.612702
2005-10-06 07:30:29 51°14.003 2°49.721 -999 4.049002 32.234144 -0.612702
2005-10-06 07:30:34 51°14.001 2°49.715 -999 4.049106 32.235064 -0.612702
2005-10-06 07:30:39 51°13.999 2°49.71 -999 4.049106 32.235064 -0.612702
2005-10-06 07:30:44 51°13.998 2°49.704 -999 4.049935 32.242427 -0.578993
2005-10-06 07:30:49 51°13.996 2°49.698 -999 4.04838 32.228621 -0.612702
2005-10-06 07:30:54 51°13.995 2°49.693 -999 4.048276 32.226357 -0.612702
2005-10-06 07:30:59 51°13.993 2°49.687 -999 4.049624 32.237649 -0.612702
2005-10-06 07:31:04 51°13.992 2°49.682 -999 4.049624 32.237649 -0.612702
2005-10-06 07:31:09 51°13.99 2°49.676 -999 4.050039 32.24133 -0.612702
2005-10-06 07:31:14 51°13.989 2°49.671 -999 4.049624 32.238321 -0.612702
2005-10-06 07:31:19 51°13.987 2°49.665 -999 4.050142 32.243595 -0.612702
2005-10-06 07:31:24 51°13.985 2°49.66 -999 4.051179 32.2528 -0.612702
2005-10-06 07:31:29 51°13.984 2°49.654 -999 4.050557 32.247277 -0.612702
2005-10-06 07:31:34 51°13.982 2°49.649 -999 4.050453 32.245684 -0.612702
2005-10-06 07:31:39 51°13.981 2°49.643 -999 4.050453 32.245684 -0.612702
2005-10-06 07:31:44 51°13.979 2°49.638 -999 4.050972 32.249614 -0.612702
2005-10-06 07:31:49 51°13.977 2°49.632 -999 4.04952 32.236056 -0.612702
2005-10-06 07:31:54 51°13.976 2°49.627 -999 4.050557 32.245259 -0.612702
2005-10-06 07:31:59 51°13.974 2°49.621 -999 4.051075 32.249861 -0.612702
2005-10-06 07:32:04 51°13.973 2°49.616 -999 4.051283 32.252375 -0.612702
2005-10-06 07:32:08 51°13.971 2°49.611 -999 4.051283 32.252375 -0.612702
2005-10-06 07:32:14 51°13.969 2°49.605 -999 4.048795 32.230958 -0.612702
2005-10-06 07:32:19 51°13.968 2°49.599 -999 4.049209 32.23464 -0.612702
2005-10-06 07:32:24 51°13.966 2°49.593 -999 4.051283 32.253047 -0.612702
2005-10-06 07:32:29 51°13.965 2°49.588 -999 4.051697 32.256729 -0.612702
2005-10-06 07:32:34 51°13.963 2°49.582 -999 4.050868 32.248693 -0.612702
2005-10-06 07:32:39 51°13.961 2°49.577 -999 4.050868 32.248693 -0.612702
2005-10-06 07:32:44 51°13.96 2°49.571 -999 4.050453 32.245012 -0.612702
2005-10-06 07:32:49 51°13.958 2°49.566 -999 4.051801 32.256977 -0.612702
2005-10-06 07:32:54 51°13.956 2°49.56 -999 4.051386 32.253295 -0.612702
2005-10-06 07:32:59 51°13.955 2°49.554 -999 4.051801 32.256977 -0.612702
2005-10-06 07:33:04 51°13.953 2°49.549 -999 4.051801 32.256977 -0.612702
2005-10-06 07:33:09 51°13.952 2°49.543 -999 4.051905 32.257225 -0.612702
2005-10-06 07:33:14 51°13.95 2°49.538 -999 4.051905 32.257897 -0.612702
2005-10-06 07:33:19 51°13.949 2°49.533 -999 4.052216 32.262005 -0.612702
2005-10-06 07:33:24 51°13.947 2°49.527 -999 4.052734 32.26728 -0.612702
2005-10-06 07:33:29 51°13.946 2°49.521 -999 4.052423 32.265192 -0.612702
2005-10-06 07:33:34 51°13.944 2°49.516 -999 4.052423 32.265192 -0.612702
2005-10-06 07:33:39 51°13.943 2°49.51 -999 4.052423 32.265192 -0.612702
2005-10-06 07:33:44 51°13.941 2°49.505 -999 4.05263 32.267033 -0.612702
2005-10-06 07:33:49 51°13.939 2°49.499 -999 4.052423 32.265192 -0.612702
2005-10-06 07:33:54 51°13.938 2°49.494 -999 4.052941 32.268448 -0.612702
2005-10-06 07:33:59 51°13.936 2°49.488 -999 4.05263 32.265014 -0.612702
2005-10-06 07:34:04 51°13.935 2°49.482 -999 4.053667 32.275565 -0.612702
2005-10-06 07:34:09 51°13.934 2°49.476 -999 4.053667 32.275565 -0.612702
2005-10-06 07:34:14 51°13.932 2°49.47 -999 4.053667 32.274219 -0.612702
2005-10-06 07:34:19 51°13.93 2°49.465 -999 4.051905 32.25857 -0.612702
2005-10-06 07:34:24 51°13.929 2°49.459 -999 4.052838 32.267528 -0.612702
2005-10-06 07:34:29 51°13.927 2°49.453 -999 4.053149 32.271635 -0.612702
2005-10-06 07:34:34 51°13.925 2°49.447 -999 4.053356 32.273477 -0.612702
2005-10-06 07:34:39 51°13.924 2°49.441 -999 4.053356 32.273477 -0.612702
2005-10-06 07:34:44 51°13.922 2°49.435 -999 4.05263 32.267033 -0.612702
2005-10-06 07:34:49 51°13.92 2°49.429 -999 4.053667 32.276912 -0.612702
2005-10-06 07:34:54 51°13.919 2°49.422 -999 4.054289 32.283109 -0.612702
2005-10-06 07:34:59 51°13.917 2°49.416 -999 4.053978 32.28102 -0.612702
2005-10-06 07:35:04 51°13.915 2°49.41 -999 4.053667 32.278932 -0.612702
2005-10-06 07:35:09 51°13.914 2°49.404 -999 4.053667 32.278932 -0.612702
2005-10-06 07:35:14 51°13.912 2°49.398 -999 4.054082 32.283961 -0.612702
2005-10-06 07:35:19 51°13.91 2°49.392 -999 4.053978 32.282367 -0.612702
2005-10-06 07:35:24 51°13.909 2°49.385 -999 4.054289 32.284456 -0.612702
2005-10-06 07:35:29 51°13.907 2°49.379 -999 4.054496 32.28495 -0.612702
2005-10-06 07:35:34 51°13.905 2°49.372 -999 4.054289 32.282435 -0.612702
2005-10-06 07:35:39 51°13.904 2°49.366 -999 4.054289 32.282435 -0.612702
2005-10-06 07:35:44 51°13.902 2°49.36 -999 4.054393 32.283356 -0.612702
2005-10-06 07:35:49 51°13.9 2°49.353 -999 4.054496 32.28495 -0.612702
2005-10-06 07:35:54 51°13.899 2°49.347 -999 4.054704 32.288139 -0.612702
2005-10-06 07:35:59 51°13.897 2°49.34 -999 4.055015 32.292248 -0.612702
2005-10-06 07:36:04 51°13.895 2°49.334 -999 4.055222 32.295437 -0.612702
2005-10-06 07:36:09 51°13.894 2°49.328 -999 4.055222 32.295437 -0.612702
2005-10-06 07:36:14 51°13.892 2°49.321 -999 4.054808 32.292428 -0.612702
2005-10-06 07:36:19 51°13.89 2°49.314 -999 4.054393 32.288745 -0.612702
2005-10-06 07:36:24 51°13.889 2°49.308 -999 4.055326 32.297706 -0.612702
2005-10-06 07:36:28 51°13.887 2°49.303 -999 4.055222 32.297459 -0.646411
2005-10-06 07:36:34 51°13.885 2°49.295 -999 4.055222 32.297459 -0.646411
2005-10-06 07:36:39 51°13.884 2°49.288 -999 4.054704 32.292855 -0.646411
2005-10-06 07:36:44 51°13.882 2°49.281 -999 4.054808 32.291754 -0.612702
2005-10-06 07:36:49 51°13.881 2°49.275 -999 4.055119 32.29519 -0.646411
2005-10-06 07:36:54 51°13.879 2°49.268 -999 4.055326 32.297706 -0.646411
2005-10-06 07:36:59 51°13.877 2°49.262 -999 4.056466 32.307835 -0.646411
2005-10-06 07:37:04 51°13.876 2°49.255 -999 4.05657 32.308756 -0.612702
2005-10-06 07:37:08 51°13.874 2°49.25 -999 4.05657 32.308756 -0.612702
2005-10-06 07:37:14 51°13.872 2°49.242 -999 4.056777 32.310598 -0.646411
2005-10-06 07:37:19 51°13.871 2°49.235 -999 4.056777 32.311272 -0.612702
2005-10-06 07:37:24 51°13.869 2°49.228 -999 4.056674 32.311026 -0.646411
2005-10-06 07:37:29 51°13.867 2°49.222 -999 4.057088 32.314709 -0.646411
2005-10-06 07:37:34 51°13.866 2°49.215 -999 4.057192 32.31563 -0.646411
2005-10-06 07:37:39 51°13.864 2°49.208 -999 4.057192 32.31563 -0.646411
2005-10-06 07:37:44 51°13.862 2°49.202 -999 4.057296 32.316551 -0.646411
2005-10-06 07:37:49 51°13.861 2°49.195 -999 4.057503 32.317719 -0.612702
2005-10-06 07:37:54 51°13.859 2°49.188 -999 4.057814 32.319807 -0.646411
2005-10-06 07:37:59 51°13.857 2°49.182 -999 4.058125 32.32257 -0.646411
2005-10-06 07:38:04 51°13.856 2°49.176 -999 4.058229 32.322817 -0.646411
2005-10-06 07:38:09 51°13.854 2°49.169 -999 4.058229 32.322817 -0.646411
2005-10-06 07:38:14 51°13.852 2°49.162 -999 4.058332 32.323738 -0.646411
2005-10-06 07:38:19 51°13.851 2°49.156 -999 4.058332 32.324412 -0.646411
2005-10-06 07:38:24 51°13.849 2°49.149 -999 4.058436 32.326008 -0.646411
2005-10-06 07:38:29 51°13.847 2°49.143 -999 4.058643 32.328524 -0.646411
2005-10-06 07:38:34 51°13.846 2°49.137 -999 4.058851 32.330366 -0.646411
2005-10-06 07:38:39 51°13.844 2°49.13 -999 4.058851 32.330366 -0.646411
2005-10-06 07:38:44 51°13.843 2°49.124 -999 4.058747 32.328771 -0.646411
2005-10-06 07:38:48 51°13.841 2°49.119 -999 4.059265 32.333376 -0.646411
2005-10-06 07:38:54 51°13.839 2°49.111 -999 4.059058 32.331534 -0.646411
2005-10-06 07:38:59 51°13.838 2°49.105 -999 4.059265 32.33405 -0.646411
2005-10-06 07:39:04 51°13.836 2°49.098 -999 4.059369 32.335646 -0.646411
2005-10-06 07:39:09 51°13.835 2°49.092 -999 4.059369 32.335646 -0.646411
2005-10-06 07:39:14 51°13.833 2°49.086 -999 4.059473 32.337917 -0.646411
2005-10-06 07:39:19 51°13.832 2°49.08 -999 4.05968 32.339759 -0.646411
2005-10-06 07:39:24 51°13.83 2°49.074 -999 4.059887 32.341601 -0.646411
2005-10-06 07:39:29 51°13.828 2°49.067 -999 4.060095 32.343444 -0.646411
2005-10-06 07:39:34 51°13.827 2°49.061 -999 4.059369 32.337671 -0.646411
2005-10-06 07:39:39 51°13.825 2°49.055 -999 4.059369 32.337671 -0.646411
2005-10-06 07:39:44 51°13.824 2°49.049 -999 4.058332 32.328459 -0.646411
2005-10-06 07:39:49 51°13.822 2°49.043 -999 4.060302 32.345961 -0.646411
2005-10-06 07:39:54 51°13.82 2°49.036 -999 4.060302 32.345286 -0.646411
2005-10-06 07:39:59 51°13.819 2°49.03 -999 4.061028 32.351059 -0.646411
2005-10-06 07:40:04 51°13.817 2°49.024 -999 4.060924 32.350138 -0.646411
2005-10-06 07:40:09 51°13.816 2°49.018 -999 4.060924 32.350138 -0.646411
2005-10-06 07:40:14 51°13.814 2°49.012 -999 4.06165 32.357261 -0.646411
2005-10-06 07:40:19 51°13.813 2°49.005 -999 4.06165 32.357936 -0.646411
2005-10-06 07:40:24 51°13.811 2°48.999 -999 4.061857 32.359779 -0.646411
2005-10-06 07:40:29 51°13.81 2°48.993 -999 4.061857 32.360454 -0.646411
2005-10-06 07:40:34 51°13.808 2°48.987 -999 4.061546 32.35769 -0.646411
2005-10-06 07:40:39 51°13.807 2°48.981 -999 4.061546 32.35769 -0.646411
2005-10-06 07:40:44 51°13.805 2°48.975 -999 4.062272 32.363464 -0.646411
2005-10-06 07:40:49 51°13.803 2°48.969 -999 4.062272 32.362788 -0.646411
2005-10-06 07:40:54 51°13.802 2°48.963 -999 4.062894 32.368316 -0.646411
2005-10-06 07:40:59 51°13.8 2°48.957 -999 4.06279 32.367394 -0.646411
2005-10-06 07:41:04 51°13.799 2°48.95 -999 4.062997 32.367886 -0.646411
2005-10-06 07:41:08 51°13.797 2°48.945 -999 4.062997 32.367886 -0.646411
2005-10-06 07:41:14 51°13.796 2°48.938 -999 4.063516 32.373168 -0.646411
2005-10-06 07:41:19 51°13.794 2°48.932 -999 4.063516 32.373843 -0.646411
2005-10-06 07:41:24 51°13.792 2°48.926 -999 4.06393 32.376177 -0.646411
2005-10-06 07:41:29 51°13.791 2°48.92 -999 4.064034 32.377098 -0.646411
2005-10-06 07:41:34 51°13.789 2°48.914 -999 4.064034 32.377774 -0.646411
2005-10-06 07:41:39 51°13.787 2°48.908 -999 4.064034 32.377774 -0.646411
2005-10-06 07:41:44 51°13.786 2°48.901 -999 4.064242 32.378941 -0.680121
2005-10-06 07:41:49 51°13.784 2°48.896 -999 4.064449 32.380783 -0.680121
2005-10-06 07:41:54 51°13.782 2°48.889 -999 4.064553 32.381705 -0.680121
2005-10-06 07:41:59 51°13.781 2°48.883 -999 4.064553 32.381029 -0.680121
2005-10-06 07:42:04 51°13.779 2°48.878 -999 4.065278 32.386126 -0.680121
2005-10-06 07:42:09 51°13.778 2°48.872 -999 4.065278 32.386126 -0.680121
2005-10-06 07:42:14 51°13.776 2°48.865 -999 4.065071 32.384284 -0.680121
2005-10-06 07:42:19 51°13.774 2°48.859 -999 4.065589 32.38889 -0.680121
2005-10-06 07:42:24 51°13.773 2°48.853 -999 4.065382 32.388399 -0.680121
2005-10-06 07:42:29 51°13.771 2°48.847 -999 4.065797 32.393436 -0.680121
2005-10-06 07:42:34 51°13.77 2°48.842 -999 4.065278 32.389505 -0.680121
2005-10-06 07:42:39 51°13.768 2°48.836 -999 4.065278 32.389505 -0.680121
2005-10-06 07:42:44 51°13.766 2°48.83 -999 4.065797 32.394112 -0.680121
2005-10-06 07:42:49 51°13.765 2°48.824 -999 4.065797 32.39276 -0.680121
2005-10-06 07:42:54 51°13.763 2°48.818 -999 4.066108 32.394172 -0.680121
2005-10-06 07:42:59 51°13.761 2°48.812 -999 4.066522 32.398533 -0.680121
2005-10-06 07:43:04 51°13.76 2°48.806 -999 4.066315 32.396691 -0.680121
2005-10-06 07:43:09 51°13.758 2°48.8 -999 4.066315 32.396691 -0.680121
2005-10-06 07:43:14 51°13.757 2°48.794 -999 4.066626 32.399455 -0.680121
2005-10-06 07:43:19 51°13.755 2°48.788 -999 4.066626 32.398779 -0.680121
2005-10-06 07:43:24 51°13.754 2°48.782 -999 4.066833 32.401297 -0.680121
2005-10-06 07:43:29 51°13.752 2°48.776 -999 4.067041 32.403816 -0.680121
2005-10-06 07:43:34 51°13.75 2°48.77 -999 4.066522 32.399209 -0.680121
2005-10-06 07:43:39 51°13.749 2°48.763 -999 4.066522 32.399209 -0.680121
2005-10-06 07:43:44 51°13.747 2°48.756 -999 4.067248 32.406335 -0.680121
2005-10-06 07:43:49 51°13.745 2°48.75 -999 4.067144 32.405414 -0.680121
2005-10-06 07:43:54 51°13.743 2°48.743 -999 4.067455 32.409531 -0.680121
2005-10-06 07:43:59 51°13.742 2°48.736 -999 4.067559 32.411128 -0.680121
2005-10-06 07:44:04 51°13.74 2°48.729 -999 4.067559 32.411805 -0.680121
2005-10-06 07:44:09 51°13.738 2°48.722 -999 4.067559 32.411805 -0.680121
2005-10-06 07:44:14 51°13.737 2°48.714 -999 4.067663 32.412726 -0.680121
2005-10-06 07:44:19 51°13.735 2°48.707 -999 4.067663 32.412726 -0.680121
2005-10-06 07:44:24 51°13.733 2°48.7 -999 4.067766 32.414324 -0.680121
2005-10-06 07:44:29 51°13.732 2°48.692 -999 4.06787 32.416599 -0.680121
2005-10-06 07:44:34 51°13.73 2°48.685 -999 4.06787 32.416599 -0.680121
2005-10-06 07:44:39 51°13.729 2°48.677 -999 4.06787 32.416599 -0.680121
2005-10-06 07:44:44 51°13.727 2°48.669 -999 4.06787 32.417276 -0.680121
2005-10-06 07:44:49 51°13.726 2°48.662 -999 4.067974 32.418197 -0.680121
2005-10-06 07:44:54 51°13.725 2°48.654 -999 4.068077 32.419119 -0.680121
2005-10-06 07:44:59 51°13.723 2°48.646 -999 4.068181 32.420717 -0.680121
2005-10-06 07:45:04 51°13.722 2°48.638 -999 4.068181 32.42004 -0.680121
2005-10-06 07:45:09 51°13.721 2°48.63 -999 4.068181 32.42004 -0.680121
2005-10-06 07:45:14 51°13.72 2°48.623 -999 4.068285 32.420285 -0.680121
2005-10-06 07:45:19 51°13.719 2°48.615 -999 4.068388 32.42053 -0.680121
2005-10-06 07:45:24 51°13.717 2°48.607 -999 4.068492 32.422128 -0.680121
2005-10-06 07:45:29 51°13.716 2°48.599 -999 4.068596 32.423727 -0.680121
2005-10-06 07:45:34 51°13.715 2°48.591 -999 4.068699 32.424648 -0.680121
2005-10-06 07:45:39 51°13.714 2°48.583 -999 4.068699 32.424648 -0.680121
2005-10-06 07:45:44 51°13.713 2°48.575 -999 4.068803 32.426247 -0.680121
2005-10-06 07:45:49 51°13.712 2°48.567 -999 4.068907 32.426492 -0.680121
2005-10-06 07:45:54 51°13.711 2°48.559 -999 4.06901 32.427413 -0.680121
2005-10-06 07:45:59 51°13.71 2°48.55 -999 4.069114 32.427658 -0.680121
2005-10-06 07:46:04 51°13.71 2°48.542 -999 4.069218 32.429257 -0.680121
2005-10-06 07:46:09 51°13.709 2°48.534 -999 4.069218 32.429257 -0.680121
2005-10-06 07:46:14 51°13.708 2°48.526 -999 4.069114 32.429012 -0.680121
2005-10-06 07:46:19 51°13.707 2°48.517 -999 4.069322 32.432209 -0.680121
2005-10-06 07:46:24 51°13.706 2°48.509 -999 4.069529 32.434052 -0.680121
2005-10-06 07:46:29 51°13.705 2°48.5 -999 4.069633 32.434297 -0.71383
2005-10-06 07:46:34 51°13.704 2°48.492 -999 4.06984 32.436818 -0.71383
2005-10-06 07:46:39 51°13.704 2°48.484 -999 4.06984 32.436818 -0.71383
2005-10-06 07:46:44 51°13.703 2°48.475 -999 4.069944 32.438416 -0.680121
2005-10-06 07:46:49 51°13.702 2°48.467 -999 4.070047 32.440015 -0.680121
2005-10-06 07:46:54 51°13.702 2°48.458 -999 4.070151 32.441614 -0.71383
2005-10-06 07:46:59 51°13.701 2°48.449 -999 4.070358 32.442781 -0.71383
2005-10-06 07:47:04 51°13.7 2°48.44 -999 4.070566 32.444624 -0.680121
2005-10-06 07:47:09 51°13.7 2°48.431 -999 4.070566 32.444624 -0.680121
2005-10-06 07:47:14 51°13.699 2°48.423 -999 4.070773 32.446468 -0.680121
2005-10-06 07:47:19 51°13.698 2°48.414 -999 4.070773 32.446468 -0.680121
2005-10-06 07:47:24 51°13.698 2°48.406 -999 4.070877 32.44739 -0.680121
2005-10-06 07:47:28 51°13.697 2°48.399 -999 4.071188 32.450155 -0.71383
2005-10-06 07:47:34 51°13.696 2°48.389 -999 4.071188 32.450832 -0.71383
2005-10-06 07:47:39 51°13.695 2°48.381 -999 4.071188 32.450832 -0.71383
2005-10-06 07:47:44 51°13.695 2°48.374 -999 4.071395 32.452676 -0.680121
2005-10-06 07:47:48 51°13.694 2°48.368 -999 4.071602 32.453842 -0.680121
2005-10-06 07:47:54 51°13.693 2°48.358 -999 4.07181 32.455008 -0.680121
2005-10-06 07:47:59 51°13.693 2°48.351 -999 4.072121 32.457096 -0.680121
2005-10-06 07:48:04 51°13.692 2°48.343 -999 4.072328 32.45894 -0.680121
2005-10-06 07:48:09 51°13.691 2°48.336 -999 4.072328 32.45894 -0.680121
2005-10-06 07:48:14 51°13.691 2°48.329 -999 4.072639 32.461705 -0.680121
2005-10-06 07:48:19 51°13.69 2°48.322 -999 4.072846 32.463549 -0.680121
2005-10-06 07:48:24 51°13.689 2°48.314 -999 4.073054 32.466748 -0.680121
2005-10-06 07:48:29 51°13.688 2°48.308 -999 4.073261 32.46927 -0.680121
2005-10-06 07:48:34 51°13.688 2°48.3 -999 4.073468 32.470436 -0.680121
2005-10-06 07:48:39 51°13.687 2°48.294 -999 4.073468 32.470436 -0.680121
2005-10-06 07:48:44 51°13.686 2°48.287 -999 4.073261 32.468592 -0.680121
2005-10-06 07:48:49 51°13.685 2°48.28 -999 4.073883 32.473445 -0.680121
2005-10-06 07:48:54 51°13.684 2°48.274 -999 4.07409 32.475289 -0.680121
2005-10-06 07:48:59 51°13.684 2°48.267 -999 4.069633 32.434974 -0.680121
2005-10-06 07:49:04 51°13.683 2°48.261 -999 4.069633 32.434974 -0.680121
2005-10-06 07:49:09 51°13.682 2°48.254 -999 4.068907 32.429199 -0.680121
2005-10-06 07:49:14 51°13.681 2°48.248 -999 4.068388 32.425268 -0.680121
2005-10-06 07:49:19 51°13.68 2°48.241 -999 4.075024 32.484264 -0.680121
2005-10-06 07:49:24 51°13.68 2°48.235 -999 4.074712 32.482177 -0.680121
2005-10-06 07:49:29 51°13.679 2°48.229 -999 4.075542 32.488874 -0.680121
2005-10-06 07:49:34 51°13.678 2°48.222 -999 4.075023 32.483586 -0.680121